Wetterdaten: aktuell Sonntag, 19.05.2019 20:44
<
Datum Zeit Temp. I. Temp. 2m Temp. 5cm Temp. -10cm Temp. GH Temp. GH2 LF I. Luftf.2m Feuchte GH Feuchte GH2 Luftdruck Regen Wind Richtung Richtung Taupunkt Windchill Windben
19.05.2019 20:44 16,6 C 17,3 C 16,2 C 18,5 C 18,7 C 22,1 C 69 % 64 % 61 % 99 % 1002,9 hPa 0,0 l/m 8,0 km/h (2 Bft) W-NW 292 10,4 C 17,3 C 17,9 km/h (3 Bft)
19.05.2019 20:42 16,6 C 17,3 C 16,1 C 18,5 C 18,7 C 22,2 C 69 % 64 % 61 % 99 % 1002,9 hPa 0,0 l/m 7,9 km/h (2 Bft) N-NO 22 10,4 C 17,3 C 11,8 km/h (2 Bft)
19.05.2019 20:40 16,6 C 17,4 C 16,2 C 18,5 C 18,9 C 22,3 C 69 % 64 % 61 % 99 % 1002,9 hPa 0,0 l/m 7,9 km/h (2 Bft) NO 45 10,5 C 17,4 C 18,6 km/h (3 Bft)
19.05.2019 20:38 16,6 C 17,5 C 16,2 C 18,5 C 19,0 C 22,5 C 69 % 64 % 61 % 99 % 1002,9 hPa 0,0 l/m 7,7 km/h (2 Bft) N-NO 22 10,6 C 17,5 C 20,8 km/h (4 Bft)
19.05.2019 20:36 16,7 C 17,6 C 16,3 C 18,5 C 19,1 C 22,5 C 69 % 64 % 60 % 99 % 1002,9 hPa 0,0 l/m 7,4 km/h (2 Bft) NO 45 10,7 C 17,6 C 16,4 km/h (3 Bft)
19.05.2019 20:34 16,6 C 17,6 C 16,3 C 18,5 C 19,2 C 22,6 C 69 % 64 % 60 % 99 % 1002,9 hPa 0,0 l/m 7,2 km/h (2 Bft) N-NO 22 10,7 C 17,6 C 23,2 km/h (4 Bft)
19.05.2019 20:32 16,6 C 17,7 C 16,4 C 18,5 C 19,3 C 22,7 C 69 % 64 % 60 % 99 % 1002,9 hPa 0,0 l/m 7,2 km/h (2 Bft) NO 45 10,8 C 17,7 C 12,1 km/h (2 Bft)
19.05.2019 20:30 16,7 C 17,7 C 16,4 C 18,5 C 19,4 C 22,8 C 69 % 64 % 59 % 99 % 1002,9 hPa 0,0 l/m 7,9 km/h (2 Bft) N-NO 22 10,8 C 17,7 C 9,4 km/h (2 Bft)
19.05.2019 20:28 16,7 C 17,7 C 16,6 C 18,5 C 19,5 C 22,9 C 69 % 64 % 59 % 99 % 1002,9 hPa 0,0 l/m 7,6 km/h (2 Bft) N-NO 22 10,8 C 17,7 C 8,2 km/h (2 Bft)
19.05.2019 20:26 16,7 C 17,8 C 16,9 C 18,5 C 19,6 C 23,0 C 69 % 64 % 59 % 99 % 1002,9 hPa 0,0 l/m 7,9 km/h (2 Bft) N-NO 22 10,9 C 17,8 C 16,4 km/h (3 Bft)
19.05.2019 20:24 16,7 C 17,8 C 16,9 C 18,5 C 19,7 C 23,1 C 69 % 63 % 58 % 99 % 1002,9 hPa 0,0 l/m 8,4 km/h (2 Bft) N 360 10,7 C 17,8 C 10,9 km/h (2 Bft)
19.05.2019 20:22 16,7 C 17,9 C 16,9 C 18,5 C 19,8 C 23,1 C 69 % 63 % 58 % 99 % 1002,9 hPa 0,0 l/m 8,7 km/h (2 Bft) NO 45 10,8 C 17,9 C 17,1 km/h (3 Bft)
19.05.2019 20:20 16,7 C 18,0 C 16,8 C 18,5 C 20,0 C 23,4 C 69 % 63 % 58 % 99 % 1002,9 hPa 0,0 l/m 8,4 km/h (2 Bft) N-NO 22 10,8 C 18,0 C 25,1 km/h (4 Bft)
19.05.2019 20:18 16,7 C 18,1 C 17,1 C 18,5 C 20,1 C 23,4 C 69 % 63 % 57 % 99 % 1002,9 hPa 0,0 l/m 7,9 km/h (2 Bft) O-NO 67 10,9 C 18,1 C 13,3 km/h (3 Bft)
19.05.2019 20:16 16,7 C 18,2 C 17,2 C 18,5 C 20,2 C 23,5 C 69 % 63 % 57 % 99 % 1002,9 hPa 0,0 l/m 7,7 km/h (2 Bft) SW 225 11,0 C 18,2 C 17,4 km/h (3 Bft)
19.05.2019 20:14 16,7 C 18,2 C 17,2 C 18,5 C 20,4 C 23,6 C 69 % 63 % 57 % 99 % 1002,9 hPa 0,0 l/m 7,6 km/h (2 Bft) N-NO 22 11,0 C 18,2 C 15,4 km/h (3 Bft)
19.05.2019 20:12 16,7 C 18,3 C 17,2 C 18,5 C 20,5 C 23,7 C 69 % 63 % 57 % 99 % 1002,9 hPa 0,0 l/m 7,6 km/h (2 Bft) N-NO 22 11,1 C 18,3 C 16,7 km/h (3 Bft)
19.05.2019 20:10 16,7 C 18,4 C 17,2 C 18,5 C 20,7 C 23,9 C 69 % 63 % 57 % 99 % 1003,1 hPa 0,0 l/m 7,7 km/h (2 Bft) N-NO 22 11,2 C 18,4 C 16,4 km/h (3 Bft)
19.05.2019 20:08 16,7 C 18,4 C 17,4 C 18,5 C 20,7 C 23,9 C 69 % 63 % 57 % 99 % 1003,1 hPa 0,0 l/m 7,6 km/h (2 Bft) NO 45 11,2 C 18,4 C 9,2 km/h (2 Bft)
19.05.2019 20:06 16,6 C 18,4 C 17,3 C 18,5 C 20,9 C 24,1 C 69 % 64 % 57 % 99 % 1003,1 hPa 0,0 l/m 7,9 km/h (2 Bft) N-NO 22 11,5 C 18,4 C 13,5 km/h (3 Bft)
19.05.2019 20:04 16,7 C 18,5 C 17,3 C 18,5 C 21,0 C 24,1 C 69 % 64 % 57 % 99 % 1003,1 hPa 0,0 l/m 7,9 km/h (2 Bft) NO 45 11,6 C 18,5 C 7,7 km/h (2 Bft)
19.05.2019 20:02 16,6 C 18,6 C 17,4 C 18,5 C 21,2 C 24,3 C 69 % 64 % 57 % 99 % 1003,1 hPa 0,0 l/m 7,6 km/h (2 Bft) N-NO 22 11,7 C 18,6 C 18,1 km/h (3 Bft)
19.05.2019 20:00 16,7 C 18,7 C 17,5 C 18,5 C 21,4 C 24,4 C 69 % 64 % 57 % 99 % 1003,1 hPa 0,0 l/m 7,7 km/h (2 Bft) NO 45 11,7 C 18,7 C 15,2 km/h (3 Bft)
19.05.2019 19:58 16,7 C 18,7 C 17,6 C 18,5 C 21,6 C 24,5 C 69 % 64 % 57 % 99 % 1003,1 hPa 0,0 l/m 7,6 km/h (2 Bft) O-NO 67 11,7 C 18,7 C 11,6 km/h (2 Bft)
19.05.2019 19:56 16,7 C 18,8 C 17,7 C 18,5 C 21,7 C 24,6 C 69 % 64 % 56 % 99 % 1003,1 hPa 0,0 l/m 7,2 km/h (2 Bft) N-NO 22 11,8 C 18,8 C 11,1 km/h (2 Bft)
19.05.2019 19:54 16,7 C 18,9 C 17,7 C 18,5 C 21,9 C 24,7 C 69 % 64 % 56 % 99 % 1003,1 hPa 0,0 l/m 6,9 km/h (2 Bft) NO 45 11,9 C 18,9 C 10,1 km/h (2 Bft)
19.05.2019 19:52 16,7 C 18,9 C 17,8 C 18,5 C 21,9 C 24,8 C 69 % 64 % 56 % 99 % 1003,1 hPa 0,0 l/m 7,2 km/h (2 Bft) NW 315 11,9 C 18,9 C 12,3 km/h (3 Bft)
19.05.2019 19:50 16,7 C 19,0 C 18,0 C 18,5 C 22,1 C 24,9 C 69 % 64 % 56 % 99 % 1003,0 hPa 0,0 l/m 7,7 km/h (2 Bft) N-NO 22 12,0 C 19,0 C 24,4 km/h (4 Bft)
19.05.2019 19:48 16,7 C 19,0 C 18,2 C 18,5 C 22,3 C 25,1 C 69 % 64 % 55 % 0 % 1003,0 hPa 0,0 l/m 7,4 km/h (2 Bft) N-NO 22 12,0 C 19,0 C 11,6 km/h (2 Bft)
19.05.2019 19:46 16,7 C 19,1 C 18,1 C 18,5 C 22,4 C 25,2 C 69 % 64 % 55 % 0 % 1003,0 hPa 0,0 l/m 7,7 km/h (2 Bft) N-NO 22 12,1 C 19,1 C 9,2 km/h (2 Bft)
19.05.2019 19:44 16,7 C 19,2 C 18,3 C 18,5 C 22,6 C 25,3 C 69 % 64 % 54 % 0 % 1003,0 hPa 0,0 l/m 8,4 km/h (2 Bft) O-NO 67 12,2 C 19,2 C 9,7 km/h (2 Bft)
19.05.2019 19:42 16,7 C 19,2 C 18,4 C 18,5 C 22,7 C 25,4 C 69 % 64 % 54 % 0 % 1003,0 hPa 0,0 l/m 8,4 km/h (2 Bft) N-NO 22 12,2 C 19,2 C 21,7 km/h (4 Bft)
19.05.2019 19:40 16,7 C 19,3 C 18,5 C 18,5 C 23,0 C 25,6 C 69 % 64 % 54 % 0 % 1003,0 hPa 0,0 l/m 8,7 km/h (2 Bft) NO 45 12,3 C 19,3 C 14,5 km/h (3 Bft)
19.05.2019 19:38 16,7 C 19,3 C 18,5 C 18,5 C 23,1 C 25,7 C 69 % 64 % 53 % 0 % 1003,0 hPa 0,0 l/m 8,5 km/h (2 Bft) NO 45 12,3 C 19,3 C 12,3 km/h (3 Bft)
19.05.2019 19:36 16,7 C 19,3 C 18,5 C 18,4 C 23,1 C 25,8 C 69 % 64 % 53 % 0 % 1003,0 hPa 0,0 l/m 8,2 km/h (2 Bft) N-NO 22 12,3 C 19,3 C 17,4 km/h (3 Bft)
19.05.2019 19:34 16,7 C 19,4 C 18,7 C 18,4 C 23,5 C 25,9 C 69 % 63 % 53 % 0 % 1003,0 hPa 0,0 l/m 7,7 km/h (2 Bft) O-NO 67 12,2 C 19,4 C 16,2 km/h (3 Bft)
19.05.2019 19:32 16,7 C 19,5 C 18,8 C 18,4 C 23,5 C 26,1 C 69 % 63 % 52 % 0 % 1003,0 hPa 0,0 l/m 7,6 km/h (2 Bft) N-NO 22 12,3 C 19,5 C 15,0 km/h (3 Bft)
19.05.2019 19:30 16,7 C 19,5 C 18,7 C 18,4 C 23,8 C 26,1 C 69 % 63 % 52 % 0 % 1002,8 hPa 0,0 l/m 7,1 km/h (2 Bft) N-NO 22 12,3 C 19,5 C 15,7 km/h (3 Bft)
19.05.2019 19:28 16,7 C 19,5 C 18,8 C 18,4 C 23,9 C 26,3 C 69 % 63 % 52 % 0 % 1002,8 hPa 0,0 l/m 7,1 km/h (2 Bft) N-NO 22 12,3 C 19,5 C 13,0 km/h (3 Bft)
19.05.2019 19:26 16,7 C 19,5 C 19,0 C 18,4 C 24,1 C 26,4 C 69 % 62 % 51 % 0 % 1002,8 hPa 0,0 l/m 7,1 km/h (2 Bft) N-NO 22 12,0 C 19,5 C 8,2 km/h (2 Bft)
19.05.2019 19:24 16,7 C 19,6 C 19,2 C 18,4 C 24,3 C 26,5 C 69 % 62 % 52 % 0 % 1002,8 hPa 0,0 l/m 7,4 km/h (2 Bft) N 360 12,1 C 19,6 C 14,2 km/h (3 Bft)
19.05.2019 19:22 16,7 C 19,6 C 19,0 C 18,4 C 24,5 C 26,7 C 69 % 62 % 51 % 0 % 1002,8 hPa 0,0 l/m 7,9 km/h (2 Bft) N-NW 337 12,1 C 19,6 C 9,7 km/h (2 Bft)
19.05.2019 19:20 16,7 C 19,7 C 19,3 C 18,4 C 24,7 C 26,9 C 69 % 62 % 51 % 0 % 1002,8 hPa 0,0 l/m 8,0 km/h (2 Bft) NO 45 12,2 C 19,7 C 7,5 km/h (2 Bft)
19.05.2019 19:18 16,7 C 19,7 C 19,3 C 18,4 C 25,0 C 27,1 C 69 % 61 % 50 % 0 % 1002,8 hPa 0,0 l/m 7,9 km/h (2 Bft) N-NO 22 12,0 C 19,7 C 21,0 km/h (4 Bft)
19.05.2019 19:16 16,7 C 19,8 C 19,4 C 18,4 C 25,1 C 27,2 C 69 % 62 % 50 % 0 % 1002,8 hPa 0,0 l/m 7,4 km/h (2 Bft) NW 315 12,3 C 19,8 C 10,1 km/h (2 Bft)
19.05.2019 19:14 16,8 C 19,8 C 19,4 C 18,4 C 25,2 C 27,3 C 69 % 61 % 50 % 0 % 1002,8 hPa 0,0 l/m 7,4 km/h (2 Bft) NO 45 12,1 C 19,8 C 18,3 km/h (3 Bft)
19.05.2019 19:12 16,7 C 19,9 C 19,6 C 18,4 C 25,5 C 27,5 C 69 % 61 % 50 % 0 % 1002,8 hPa 0,0 l/m 6,9 km/h (2 Bft) NO 45 12,2 C 19,9 C 15,4 km/h (3 Bft)
19.05.2019 19:10 16,8 C 19,9 C 19,7 C 18,4 C 25,5 C 27,7 C 69 % 61 % 49 % 0 % 1003,1 hPa 0,0 l/m 6,8 km/h (2 Bft) N-NO 22 12,2 C 19,9 C 17,9 km/h (3 Bft)
19.05.2019 19:08 16,8 C 20,0 C 19,8 C 18,4 C 25,8 C 27,9 C 69 % 61 % 49 % 0 % 1003,1 hPa 0,0 l/m 6,8 km/h (2 Bft) N-NO 22 12,2 C 20,0 C 12,1 km/h (2 Bft)
19.05.2019 19:06 16,8 C 20,1 C 19,9 C 18,4 C 26,1 C 28,1 C 69 % 61 % 49 % 4 % 1003,1 hPa 0,0 l/m 6,9 km/h (2 Bft) NO 45 12,3 C 20,1 C 21,0 km/h (4 Bft)
19.05.2019 19:04 16,8 C 20,1 C 20,0 C 18,4 C 26,2 C 28,2 C 69 % 61 % 49 % 5 % 1003,1 hPa 0,0 l/m 6,8 km/h (2 Bft) NO 45 12,3 C 20,1 C 10,4 km/h (2 Bft)
19.05.2019 19:02 16,8 C 20,2 C 20,0 C 18,4 C 26,4 C 28,3 C 69 % 61 % 48 % 6 % 1003,1 hPa 0,0 l/m 6,9 km/h (2 Bft) NO 45 12,4 C 20,2 C 11,1 km/h (2 Bft)
19.05.2019 19:00 16,8 C 20,2 C 20,1 C 18,4 C 26,6 C 28,5 C 69 % 61 % 48 % 8 % 1003,1 hPa 0,0 l/m 7,9 km/h (2 Bft) N-NO 22 12,4 C 20,2 C 12,3 km/h (3 Bft)
19.05.2019 18:58 16,8 C 20,2 C 20,2 C 18,4 C 26,8 C 28,6 C 69 % 61 % 48 % 9 % 1003,1 hPa 0,0 l/m 8,0 km/h (2 Bft) O-NO 67 12,4 C 20,2 C 14,0 km/h (3 Bft)
19.05.2019 18:56 16,8 C 20,3 C 20,4 C 18,4 C 26,9 C 28,8 C 69 % 60 % 47 % 10 % 1003,1 hPa 0,0 l/m 7,9 km/h (2 Bft) N 360 12,3 C 20,3 C 10,1 km/h (2 Bft)
19.05.2019 18:54 16,8 C 20,4 C 20,5 C 18,4 C 27,2 C 29,0 C 69 % 60 % 47 % 13 % 1003,1 hPa 0,0 l/m 8,0 km/h (2 Bft) N 360 12,4 C 20,4 C 9,4 km/h (2 Bft)
19.05.2019 18:52 16,8 C 20,5 C 20,6 C 18,4 C 27,4 C 29,1 C 69 % 60 % 46 % 14 % 1003,1 hPa 0,0 l/m 10,0 km/h (2 Bft) NO 45 12,5 C 20,5 C 12,1 km/h (2 Bft)
19.05.2019 18:50 16,8 C 20,5 C 20,7 C 18,4 C 27,7 C 29,3 C 69 % 60 % 46 % 15 % 1002,9 hPa 0,0 l/m 10,6 km/h (2 Bft) N-NO 22 12,5 C 20,5 C 20,3 km/h (4 Bft)
19.05.2019 18:48 16,8 C 20,6 C 20,9 C 18,4 C 28,0 C 29,5 C 69 % 60 % 45 % 16 % 1002,9 hPa 0,0 l/m 10,8 km/h (2 Bft) NO 45 12,6 C 20,6 C 11,6 km/h (2 Bft)
19.05.2019 18:46 16,8 C 20,7 C 21,1 C 18,4 C 28,3 C 29,5 C 69 % 58 % 45 % 16 % 1002,9 hPa 0,0 l/m 11,1 km/h (2 Bft) O-NO 67 12,1 C 20,7 C 14,0 km/h (3 Bft)
19.05.2019 18:44 16,8 C 20,8 C 21,3 C 18,4 C 28,7 C 29,7 C 69 % 58 % 45 % 17 % 1002,9 hPa 0,0 l/m 10,6 km/h (2 Bft) O-NO 67 12,2 C 20,8 C 23,4 km/h (4 Bft)
19.05.2019 18:42 16,8 C 21,0 C 21,4 C 18,4 C 28,8 C 29,9 C 69 % 58 % 45 % 17 % 1002,9 hPa 0,0 l/m 9,7 km/h (2 Bft) N-NO 22 12,4 C 21,0 C 23,4 km/h (4 Bft)
19.05.2019 18:40 16,8 C 21,1 C 21,8 C 18,4 C 29,2 C 29,9 C 69 % 59 % 45 % 18 % 1002,9 hPa 0,0 l/m 8,0 km/h (2 Bft) NO 45 12,8 C 21,1 C 32,3 km/h (5 Bft)
19.05.2019 18:38 16,8 C 21,2 C 22,2 C 18,4 C 29,3 C 30,1 C 69 % 60 % 45 % 19 % 1002,9 hPa 0,0 l/m 7,1 km/h (2 Bft) N-NO 22 13,1 C 21,2 C 25,6 km/h (4 Bft)
19.05.2019 18:36 16,8 C 21,2 C 22,3 C 18,4 C 29,5 C 30,3 C 69 % 60 % 45 % 20 % 1002,9 hPa 0,0 l/m 6,9 km/h (2 Bft) NO 45 13,1 C 21,2 C 14,5 km/h (3 Bft)
19.05.2019 18:34 16,8 C 21,2 C 22,7 C 18,4 C 29,8 C 30,3 C 69 % 62 % 45 % 20 % 1002,9 hPa 0,0 l/m 7,2 km/h (2 Bft) N-NW 337 13,6 C 21,2 C 14,2 km/h (3 Bft)
19.05.2019 18:32 16,8 C 21,2 C 23,0 C 18,3 C 29,9 C 30,4 C 69 % 62 % 44 % 20 % 1002,9 hPa 0,0 l/m 7,4 km/h (2 Bft) NO 45 13,6 C 21,2 C 7,2 km/h (2 Bft)
19.05.2019 18:30 16,8 C 21,2 C 22,9 C 18,2 C 30,0 C 30,5 C 69 % 61 % 44 % 20 % 1002,9 hPa 0,0 l/m 7,4 km/h (2 Bft) NO 45 13,4 C 21,2 C 13,5 km/h (3 Bft)
19.05.2019 18:28 16,8 C 21,2 C 22,8 C 18,2 C 30,0 C 30,4 C 69 % 61 % 43 % 20 % 1002,9 hPa 0,0 l/m 6,8 km/h (2 Bft) O-NO 67 13,4 C 21,2 C 9,7 km/h (2 Bft)
19.05.2019 18:26 16,8 C 21,3 C 23,0 C 18,2 C 30,1 C 30,5 C 69 % 61 % 42 % 21 % 1002,9 hPa 0,0 l/m 6,9 km/h (2 Bft) NW 315 13,5 C 21,3 C 8,0 km/h (2 Bft)
19.05.2019 18:24 16,8 C 21,3 C 23,5 C 18,2 C 30,3 C 30,5 C 69 % 61 % 41 % 21 % 1002,9 hPa 0,0 l/m 6,9 km/h (2 Bft) N-NO 22 13,5 C 21,3 C 21,7 km/h (4 Bft)
19.05.2019 18:22 16,8 C 21,3 C 23,7 C 18,2 C 30,3 C 30,5 C 69 % 61 % 41 % 21 % 1002,9 hPa 0,0 l/m 7,1 km/h (2 Bft) N-NO 22 13,5 C 21,3 C 14,2 km/h (3 Bft)
19.05.2019 18:20 16,8 C 21,3 C 23,3 C 18,2 C 30,4 C 30,8 C 69 % 61 % 41 % 22 % 1002,9 hPa 0,0 l/m 6,8 km/h (2 Bft) N-NO 22 13,5 C 21,3 C 11,3 km/h (2 Bft)
19.05.2019 18:18 16,8 C 21,4 C 23,2 C 18,2 C 30,5 C 30,9 C 69 % 60 % 41 % 22 % 1002,9 hPa 0,0 l/m 6,9 km/h (2 Bft) N-NO 22 13,3 C 21,4 C 12,6 km/h (3 Bft)
19.05.2019 18:16 16,9 C 21,5 C 23,6 C 18,2 C 30,5 C 31,1 C 69 % 61 % 41 % 22 % 1002,9 hPa 0,0 l/m 6,9 km/h (2 Bft) N-NO 22 13,7 C 21,5 C 19,6 km/h (3 Bft)
19.05.2019 18:14 16,9 C 21,5 C 24,0 C 18,2 C 30,7 C 31,3 C 69 % 61 % 41 % 22 % 1002,9 hPa 0,0 l/m 7,1 km/h (2 Bft) NO 45 13,7 C 21,5 C 13,5 km/h (3 Bft)
19.05.2019 18:12 16,8 C 21,5 C 24,2 C 18,2 C 30,7 C 31,4 C 69 % 61 % 41 % 22 % 1002,9 hPa 0,0 l/m 6,3 km/h (2 Bft) NO 45 13,7 C 21,5 C 15,7 km/h (3 Bft)
19.05.2019 18:10 16,8 C 21,5 C 24,2 C 18,2 C 30,7 C 31,5 C 69 % 61 % 41 % 22 % 1003,1 hPa 0,0 l/m 6,3 km/h (2 Bft) N-NO 22 13,7 C 21,5 C 9,7 km/h (2 Bft)
19.05.2019 18:08 16,8 C 21,5 C 24,3 C 18,1 C 30,7 C 31,6 C 69 % 61 % 40 % 22 % 1003,1 hPa 0,0 l/m 6,4 km/h (2 Bft) N-NW 337 13,7 C 21,5 C 9,7 km/h (2 Bft)
19.05.2019 18:06 16,9 C 21,5 C 24,6 C 18,1 C 30,7 C 31,6 C 69 % 61 % 40 % 22 % 1003,1 hPa 0,0 l/m 6,4 km/h (2 Bft) N-NO 22 13,7 C 21,5 C 16,9 km/h (3 Bft)
19.05.2019 18:04 16,9 C 21,4 C 24,5 C 18,1 C 30,9 C 31,7 C 69 % 61 % 40 % 22 % 1003,1 hPa 0,0 l/m 6,0 km/h (2 Bft) N-NO 22 13,6 C 21,4 C 14,5 km/h (3 Bft)
19.05.2019 18:02 16,9 C 21,4 C 24,4 C 18,1 C 31,0 C 31,7 C 69 % 60 % 40 % 22 % 1003,1 hPa 0,0 l/m 6,4 km/h (2 Bft) NO 45 13,3 C 21,4 C 10,6 km/h (2 Bft)
19.05.2019 18:00 16,9 C 21,3 C 24,2 C 18,1 C 31,1 C 31,7 C 69 % 61 % 38 % 22 % 1003,1 hPa 0,0 l/m 6,3 km/h (2 Bft) N-NO 22 13,5 C 21,3 C 11,8 km/h (2 Bft)
19.05.2019 17:58 16,8 C 21,2 C 23,4 C 18,1 C 31,2 C 31,7 C 69 % 60 % 38 % 23 % 1003,1 hPa 0,0 l/m 6,4 km/h (2 Bft) N-NO 22 13,1 C 21,2 C 10,1 km/h (2 Bft)
19.05.2019 17:56 16,9 C 21,4 C 23,3 C 18,1 C 31,5 C 32,1 C 69 % 61 % 38 % 22 % 1003,1 hPa 0,0 l/m 7,1 km/h (2 Bft) N-NO 22 13,6 C 21,4 C 6,5 km/h (2 Bft)
19.05.2019 17:54 16,8 C 21,4 C 23,7 C 18,1 C 31,8 C 32,1 C 69 % 60 % 37 % 23 % 1003,1 hPa 0,0 l/m 7,7 km/h (2 Bft) O-NO 67 13,3 C 21,4 C 8,2 km/h (2 Bft)
19.05.2019 17:52 16,9 C 21,5 C 23,9 C 18,1 C 32,5 C 32,3 C 69 % 60 % 36 % 24 % 1003,1 hPa 0,0 l/m 7,7 km/h (2 Bft) N 360 13,4 C 21,5 C 21,7 km/h (4 Bft)
19.05.2019 17:50 16,8 C 21,7 C 23,8 C 18,1 C 32,9 C 32,4 C 69 % 59 % 36 % 23 % 1003,4 hPa 0,0 l/m 7,7 km/h (2 Bft) NO 45 13,3 C 21,7 C 8,0 km/h (2 Bft)
19.05.2019 17:48 16,9 C 21,8 C 24,3 C 18,1 C 33,4 C 32,6 C 69 % 59 % 35 % 23 % 1003,4 hPa 0,0 l/m 7,7 km/h (2 Bft) N-NO 22 13,4 C 21,8 C 15,7 km/h (3 Bft)
19.05.2019 17:46 16,8 C 21,8 C 25,2 C 18,0 C 33,8 C 32,8 C 69 % 59 % 35 % 22 % 1003,4 hPa 0,0 l/m 7,2 km/h (2 Bft) N-NO 22 13,4 C 21,8 C 22,0 km/h (4 Bft)
19.05.2019 17:44 16,8 C 21,9 C 25,2 C 18,0 C 34,4 C 32,9 C 69 % 59 % 34 % 22 % 1003,4 hPa 0,0 l/m 6,9 km/h (2 Bft) NO 45 13,5 C 21,9 C 12,1 km/h (2 Bft)
19.05.2019 17:42 16,8 C 21,9 C 25,5 C 18,0 C 34,7 C 32,9 C 69 % 59 % 34 % 23 % 1003,4 hPa 0,0 l/m 6,9 km/h (2 Bft) O-NO 67 13,5 C 21,9 C 10,4 km/h (2 Bft)
19.05.2019 17:40 16,9 C 22,0 C 25,6 C 18,0 C 35,3 C 33,2 C 69 % 59 % 34 % 22 % 1003,4 hPa 0,0 l/m 7,1 km/h (2 Bft) O-NO 67 13,6 C 22,0 C 10,6 km/h (2 Bft)
19.05.2019 17:38 16,9 C 22,1 C 25,8 C 18,0 C 35,5 C 33,4 C 69 % 60 % 34 % 22 % 1003,4 hPa 0,0 l/m 7,4 km/h (2 Bft) N-NO 22 14,0 C 22,1 C 18,1 km/h (3 Bft)
19.05.2019 17:36 16,8 C 22,3 C 25,9 C 18,0 C 35,9 C 33,7 C 69 % 59 % 34 % 22 % 1003,4 hPa 0,0 l/m 8,0 km/h (2 Bft) O 90 13,9 C 22,3 C 13,5 km/h (3 Bft)
19.05.2019 17:34 16,8 C 22,3 C 27,3 C 18,0 C 36,4 C 33,6 C 69 % 60 % 34 % 22 % 1003,4 hPa 0,0 l/m 8,7 km/h (2 Bft) NO 45 14,2 C 22,3 C 12,3 km/h (3 Bft)
19.05.2019 17:32 16,8 C 22,2 C 27,0 C 18,0 C 36,3 C 33,5 C 69 % 61 % 34 % 22 % 1003,4 hPa 0,0 l/m 8,9 km/h (2 Bft) N-NO 22 14,3 C 22,2 C 13,5 km/h (3 Bft)
19.05.2019 17:30 16,8 C 22,2 C 26,9 C 18,0 C 36,4 C 33,4 C 69 % 59 % 34 % 22 % 1003,6 hPa 0,0 l/m 9,8 km/h (2 Bft) N-NO 22 13,8 C 22,2 C 11,6 km/h (2 Bft)
19.05.2019 17:28 16,8 C 22,1 C 26,8 C 17,9 C 36,2 C 33,3 C 69 % 60 % 34 % 22 % 1003,6 hPa 0,0 l/m 9,8 km/h (2 Bft) NO 45 14,0 C 22,1 C 14,2 km/h (3 Bft)
19.05.2019 17:26 16,8 C 22,1 C 26,6 C 17,9 C 35,9 C 33,3 C 69 % 60 % 34 % 22 % 1003,6 hPa 0,0 l/m 9,7 km/h (2 Bft) N-NO 22 14,0 C 22,1 C 19,3 km/h (3 Bft)
19.05.2019 17:24 16,8 C 22,0 C 26,6 C 17,9 C 35,7 C 33,3 C 69 % 60 % 34 % 22 % 1003,6 hPa 0,0 l/m 8,9 km/h (2 Bft) NO 45 13,9 C 22,0 C 11,8 km/h (2 Bft)
19.05.2019 17:22 16,8 C 22,0 C 26,0 C 17,9 C 35,4 C 33,3 C 69 % 60 % 33 % 22 % 1003,6 hPa 0,0 l/m 9,8 km/h (2 Bft) NO 45 13,9 C 22,0 C 14,7 km/h (3 Bft)
19.05.2019 17:20 16,8 C 22,0 C 25,6 C 17,9 C 35,5 C 33,7 C 69 % 60 % 32 % 22 % 1003,6 hPa 0,0 l/m 9,3 km/h (2 Bft) N-NO 22 13,9 C 22,0 C 23,9 km/h (4 Bft)
19.05.2019 17:18 16,8 C 22,1 C 26,4 C 17,9 C 35,6 C 33,7 C 69 % 59 % 33 % 22 % 1003,6 hPa 0,0 l/m 8,7 km/h (2 Bft) N-NO 22 13,7 C 22,1 C 13,8 km/h (3 Bft)
19.05.2019 17:16 16,8 C 22,1 C 26,3 C 17,9 C 36,0 C 33,8 C 69 % 59 % 33 % 23 % 1003,6 hPa 0,0 l/m 9,2 km/h (2 Bft) N-NO 22 13,7 C 22,1 C 18,8 km/h (3 Bft)
19.05.2019 17:14 16,8 C 22,1 C 25,9 C 17,9 C 36,0 C 33,9 C 69 % 57 % 33 % 23 % 1003,6 hPa 0,0 l/m 9,3 km/h (2 Bft) N 360 13,2 C 22,1 C 15,2 km/h (3 Bft)
19.05.2019 17:12 16,8 C 22,2 C 26,2 C 17,9 C 36,3 C 33,9 C 69 % 57 % 32 % 23 % 1003,6 hPa 0,0 l/m 9,5 km/h (2 Bft) NO 45 13,3 C 22,2 C 20,5 km/h (4 Bft)
19.05.2019 17:10 16,8 C 22,3 C 26,5 C 17,8 C 36,3 C 34,1 C 69 % 57 % 32 % 23 % 1003,3 hPa 0,0 l/m 9,8 km/h (2 Bft) N-NO 22 13,4 C 22,3 C 10,4 km/h (2 Bft)
19.05.2019 17:08 16,8 C 22,3 C 26,5 C 17,8 C 36,5 C 34,3 C 69 % 57 % 31 % 23 % 1003,3 hPa 0,0 l/m 10,3 km/h (2 Bft) NO 45 13,4 C 22,3 C 15,9 km/h (3 Bft)
19.05.2019 17:06 16,8 C 22,3 C 26,4 C 17,8 C 37,1 C 34,5 C 69 % 56 % 31 % 22 % 1003,3 hPa 0,0 l/m 10,5 km/h (2 Bft) N-NO 22 13,1 C 22,3 C 17,1 km/h (3 Bft)
19.05.2019 17:04 16,8 C 22,4 C 27,1 C 17,8 C 37,4 C 34,8 C 69 % 57 % 30 % 21 % 1003,3 hPa 0,0 l/m 11,1 km/h (2 Bft) NO 45 13,5 C 22,4 C 12,3 km/h (3 Bft)
19.05.2019 17:02 16,7 C 22,5 C 26,7 C 17,8 C 37,8 C 35,0 C 69 % 56 % 30 % 21 % 1003,3 hPa 0,0 l/m 11,7 km/h (2 Bft) O-NO 67 13,3 C 22,5 C 17,9 km/h (3 Bft)
19.05.2019 17:00 16,8 C 22,6 C 26,8 C 17,8 C 38,2 C 35,3 C 68 % 56 % 31 % 21 % 1003,3 hPa 0,0 l/m 12,1 km/h (2 Bft) N-NO 22 13,4 C 22,6 C 16,7 km/h (3 Bft)
19.05.2019 16:58 16,7 C 22,7 C 27,6 C 17,8 C 38,6 C 35,3 C 68 % 56 % 30 % 21 % 1003,3 hPa 0,0 l/m 12,7 km/h (3 Bft) N-NO 22 13,5 C 22,7 C 15,7 km/h (3 Bft)
19.05.2019 16:56 16,7 C 22,6 C 27,4 C 17,7 C 38,8 C 35,6 C 68 % 57 % 30 % 20 % 1003,3 hPa 0,0 l/m 12,1 km/h (2 Bft) N-NO 22 13,6 C 22,6 C 19,8 km/h (3 Bft)
19.05.2019 16:54 16,8 C 22,7 C 27,6 C 17,7 C 39,0 C 35,7 C 68 % 55 % 30 % 20 % 1003,3 hPa 0,0 l/m 11,4 km/h (2 Bft) N-NO 22 13,2 C 22,7 C 20,8 km/h (4 Bft)
19.05.2019 16:52 16,8 C 22,8 C 28,8 C 17,7 C 39,0 C 35,7 C 68 % 56 % 30 % 20 % 1003,3 hPa 0,0 l/m 11,3 km/h (2 Bft) O-NO 67 13,6 C 22,8 C 19,6 km/h (3 Bft)
19.05.2019 16:50 16,8 C 22,8 C 29,0 C 17,7 C 39,0 C 35,5 C 68 % 56 % 30 % 20 % 1003,7 hPa 0,0 l/m 10,5 km/h (2 Bft) N-NO 22 13,6 C 22,8 C 21,5 km/h (4 Bft)
19.05.2019 16:48 16,7 C 22,6 C 28,1 C 17,7 C 38,9 C 35,2 C 68 % 56 % 31 % 21 % 1003,7 hPa 0,0 l/m 10,8 km/h (2 Bft) N-NO 22 13,4 C 22,6 C 19,6 km/h (3 Bft)
19.05.2019 16:46 16,8 C 22,4 C 26,3 C 17,7 C 38,1 C 35,0 C 68 % 56 % 31 % 21 % 1003,7 hPa 0,0 l/m 11,7 km/h (2 Bft) N-NO 22 13,2 C 22,4 C 15,7 km/h (3 Bft)
19.05.2019 16:44 16,8 C 22,6 C 25,2 C 17,7 C 39,1 C 35,2 C 68 % 56 % 29 % 21 % 1003,7 hPa 0,0 l/m 12,7 km/h (3 Bft) N-NO 22 13,4 C 22,6 C 19,3 km/h (3 Bft)
19.05.2019 16:42 16,7 C 23,0 C 25,9 C 17,7 C 39,4 C 35,6 C 68 % 53 % 28 % 20 % 1003,7 hPa 0,0 l/m 12,6 km/h (3 Bft) N 360 12,9 C 23,0 C 23,9 km/h (4 Bft)
19.05.2019 16:40 16,7 C 23,5 C 28,9 C 17,7 C 40,3 C 36,2 C 68 % 53 % 28 % 19 % 1003,7 hPa 0,0 l/m 12,7 km/h (3 Bft) NO 45 13,4 C 23,5 C 17,6 km/h (3 Bft)
19.05.2019 16:38 16,7 C 23,6 C 30,7 C 17,6 C 41,1 C 36,5 C 69 % 54 % 28 % 19 % 1003,7 hPa 0,0 l/m 11,6 km/h (2 Bft) N-NO 22 13,7 C 23,6 C 24,9 km/h (4 Bft)
19.05.2019 16:36 16,7 C 23,6 C 30,4 C 17,6 C 41,3 C 36,5 C 69 % 53 % 28 % 19 % 1003,7 hPa 0,0 l/m 11,1 km/h (2 Bft) N-NO 22 13,4 C 23,6 C 32,6 km/h (5 Bft)
19.05.2019 16:34 16,8 C 23,5 C 30,6 C 17,6 C 41,3 C 36,4 C 69 % 55 % 30 % 19 % 1003,7 hPa 0,0 l/m 11,3 km/h (2 Bft) N-NO 22 13,9 C 23,5 C 28,5 km/h (4 Bft)
19.05.2019 16:32 16,7 C 23,4 C 29,4 C 17,6 C 40,9 C 36,0 C 69 % 54 % 30 % 20 % 1003,7 hPa 0,0 l/m 11,9 km/h (2 Bft) NO 45 13,6 C 23,4 C 26,6 km/h (4 Bft)
19.05.2019 16:30 16,8 C 23,3 C 30,2 C 17,6 C 40,9 C 36,0 C 69 % 55 % 30 % 20 % 1003,7 hPa 0,0 l/m 12,6 km/h (3 Bft) NO 45 13,7 C 23,3 C 19,6 km/h (3 Bft)
19.05.2019 16:28 16,7 C 23,2 C 29,9 C 17,6 C 40,9 C 36,0 C 69 % 54 % 30 % 20 % 1003,7 hPa 0,0 l/m 14,3 km/h (3 Bft) NO 45 13,4 C 23,2 C 47,6 km/h (6 Bft)
19.05.2019 16:26 16,8 C 23,0 C 28,3 C 17,6 C 40,5 C 35,7 C 69 % 53 % 29 % 20 % 1003,7 hPa 0,0 l/m 15,6 km/h (3 Bft) NO 45 12,9 C 23,0 C 31,4 km/h (5 Bft)
19.05.2019 16:24 16,7 C 23,0 C 27,1 C 17,5 C 40,5 C 35,8 C 69 % 51 % 29 % 20 % 1003,7 hPa 0,0 l/m 15,3 km/h (3 Bft) NO 45 12,3 C 23,0 C 16,7 km/h (3 Bft)
19.05.2019 16:22 16,7 C 23,5 C 28,8 C 17,5 C 41,3 C 36,1 C 69 % 51 % 29 % 19 % 1003,7 hPa 0,0 l/m 16,1 km/h (3 Bft) N-NO 22 12,8 C 23,5 C 31,6 km/h (5 Bft)
19.05.2019 16:20 16,7 C 23,6 C 29,7 C 17,5 C 41,5 C 36,0 C 69 % 52 % 29 % 19 % 1003,7 hPa 0,0 l/m 16,3 km/h (3 Bft) NO 45 13,2 C 23,6 C 32,3 km/h (5 Bft)
19.05.2019 16:18 16,7 C 23,7 C 30,3 C 17,5 C 41,8 C 35,7 C 69 % 52 % 28 % 20 % 1003,7 hPa 0,0 l/m 15,4 km/h (3 Bft) O-NO 67 13,2 C 23,7 C 46,3 km/h (6 Bft)
19.05.2019 16:16 16,7 C 23,6 C 29,8 C 17,5 C 41,9 C 35,7 C 69 % 52 % 28 % 20 % 1003,7 hPa 0,0 l/m 16,6 km/h (3 Bft) NO 45 13,2 C 23,6 C 20,5 km/h (4 Bft)
19.05.2019 16:14 16,6 C 23,7 C 30,6 C 17,5 C 42,0 C 35,8 C 69 % 51 % 27 % 20 % 1003,7 hPa 0,0 l/m 16,7 km/h (3 Bft) N-NO 22 13,0 C 23,7 C 33,6 km/h (5 Bft)
19.05.2019 16:12 16,6 C 23,7 C 30,5 C 17,5 C 42,1 C 35,8 C 69 % 51 % 28 % 20 % 1003,7 hPa 0,0 l/m 16,7 km/h (3 Bft) N-NO 22 13,0 C 23,7 C 37,7 km/h (5 Bft)
19.05.2019 16:10 16,6 C 23,7 C 30,2 C 17,5 C 41,9 C 35,9 C 69 % 51 % 28 % 20 % 1003,7 hPa 0,0 l/m 15,8 km/h (3 Bft) N-NO 22 13,0 C 23,7 C 22,9 km/h (4 Bft)
19.05.2019 16:08 16,6 C 23,8 C 30,7 C 17,5 C 41,9 C 35,8 C 69 % 52 % 28 % 20 % 1003,7 hPa 0,0 l/m 15,0 km/h (3 Bft) O 90 13,3 C 23,8 C 45,1 km/h (6 Bft)
19.05.2019 16:06 16,6 C 23,8 C 30,1 C 17,4 C 41,6 C 35,8 C 69 % 51 % 28 % 20 % 1003,7 hPa 0,0 l/m 14,3 km/h (3 Bft) N-NO 22 13,0 C 23,8 C 44,7 km/h (6 Bft)
19.05.2019 16:04 16,6 C 23,9 C 29,8 C 17,4 C 41,5 C 35,9 C 69 % 50 % 28 % 19 % 1003,7 hPa 0,0 l/m 12,9 km/h (3 Bft) N-NO 22 12,8 C 23,9 C 34,0 km/h (5 Bft)
19.05.2019 16:02 16,6 C 24,0 C 30,2 C 17,4 C 41,6 C 35,8 C 69 % 50 % 29 % 19 % 1003,7 hPa 0,0 l/m 12,2 km/h (2 Bft) N-NO 22 12,9 C 24,0 C 28,0 km/h (4 Bft)
19.05.2019 16:00 16,6 C 24,1 C 31,2 C 17,4 C 41,5 C 35,9 C 69 % 51 % 29 % 19 % 1003,7 hPa 0,0 l/m 12,2 km/h (2 Bft) O-NO 67 13,3 C 24,1 C 19,8 km/h (3 Bft)
19.05.2019 15:58 16,6 C 24,1 C 30,4 C 17,4 C 41,3 C 35,9 C 69 % 51 % 30 % 19 % 1003,7 hPa 0,0 l/m 12,7 km/h (3 Bft) N-NO 22 13,3 C 24,1 C 17,9 km/h (3 Bft)
19.05.2019 15:56 16,6 C 24,2 C 31,6 C 17,4 C 41,6 C 35,8 C 69 % 51 % 30 % 19 % 1003,7 hPa 0,0 l/m 13,0 km/h (3 Bft) N-NO 22 13,4 C 24,2 C 16,9 km/h (3 Bft)
19.05.2019 15:54 16,5 C 24,1 C 31,6 C 17,4 C 41,6 C 35,4 C 69 % 51 % 30 % 20 % 1003,7 hPa 0,0 l/m 12,9 km/h (3 Bft) N-NO 22 13,3 C 24,1 C 23,2 km/h (4 Bft)
19.05.2019 15:52 16,5 C 23,8 C 31,2 C 17,3 C 39,9 C 35,1 C 69 % 51 % 32 % 20 % 1003,7 hPa 0,0 l/m 13,7 km/h (3 Bft) N-NO 22 13,0 C 23,8 C 16,7 km/h (3 Bft)
19.05.2019 15:50 16,5 C 23,4 C 28,9 C 17,3 C 38,3 C 34,8 C 69 % 51 % 31 % 20 % 1003,4 hPa 0,0 l/m 13,7 km/h (3 Bft) NO 45 12,7 C 23,4 C 33,3 km/h (5 Bft)
19.05.2019 15:48 16,6 C 23,3 C 27,0 C 17,3 C 38,0 C 35,1 C 69 % 51 % 29 % 20 % 1003,4 hPa 0,0 l/m 13,0 km/h (3 Bft) NO 45 12,6 C 23,3 C 39,6 km/h (6 Bft)
19.05.2019 15:46 16,6 C 23,5 C 27,2 C 17,3 C 38,8 C 35,3 C 69 % 50 % 29 % 20 % 1003,4 hPa 0,0 l/m 13,2 km/h (3 Bft) NO 45 12,5 C 23,5 C 23,9 km/h (4 Bft)
19.05.2019 15:44 16,5 C 23,8 C 29,1 C 17,3 C 40,8 C 36,0 C 69 % 49 % 29 % 19 % 1003,4 hPa 0,0 l/m 13,2 km/h (3 Bft) NO 45 12,4 C 23,8 C 26,3 km/h (4 Bft)
19.05.2019 15:42 16,5 C 24,0 C 29,7 C 17,2 C 41,1 C 36,1 C 69 % 49 % 30 % 19 % 1003,4 hPa 0,0 l/m 12,4 km/h (3 Bft) NO 45 12,6 C 24,0 C 31,1 km/h (5 Bft)
19.05.2019 15:40 16,5 C 24,0 C 29,8 C 17,2 C 40,5 C 36,1 C 69 % 50 % 30 % 19 % 1003,4 hPa 0,0 l/m 11,7 km/h (2 Bft) N-NO 22 12,9 C 24,0 C 14,0 km/h (3 Bft)
19.05.2019 15:38 16,5 C 24,3 C 31,0 C 17,2 C 41,0 C 36,3 C 69 % 51 % 31 % 19 % 1003,4 hPa 0,0 l/m 11,3 km/h (2 Bft) NO 45 13,5 C 24,3 C 22,0 km/h (4 Bft)
19.05.2019 15:36 16,5 C 24,2 C 32,0 C 17,2 C 41,5 C 36,3 C 69 % 51 % 32 % 18 % 1003,4 hPa 0,0 l/m 11,4 km/h (2 Bft) O 90 13,4 C 24,2 C 23,7 km/h (4 Bft)
19.05.2019 15:34 16,5 C 24,1 C 31,5 C 17,2 C 41,2 C 35,9 C 69 % 50 % 34 % 19 % 1003,4 hPa 0,0 l/m 12,2 km/h (2 Bft) O-NO 67 13,0 C 24,1 C 21,0 km/h (4 Bft)
19.05.2019 15:32 16,5 C 23,7 C 30,0 C 17,1 C 39,0 C 35,3 C 69 % 51 % 34 % 20 % 1003,4 hPa 0,0 l/m 12,4 km/h (3 Bft) N-NO 22 13,0 C 23,7 C 30,9 km/h (5 Bft)
19.05.2019 15:30 16,4 C 23,5 C 29,8 C 17,1 C 38,2 C 34,7 C 69 % 52 % 35 % 20 % 1003,7 hPa 0,0 l/m 12,4 km/h (3 Bft) NO 45 13,1 C 23,5 C 16,9 km/h (3 Bft)
19.05.2019 15:28 16,5 C 23,0 C 26,9 C 17,1 C 37,3 C 34,4 C 69 % 53 % 35 % 20 % 1003,7 hPa 0,0 l/m 13,2 km/h (3 Bft) NO 45 12,9 C 23,0 C 12,3 km/h (3 Bft)
19.05.2019 15:26 16,5 C 22,8 C 26,5 C 17,1 C 36,6 C 34,3 C 68 % 53 % 33 % 20 % 1003,7 hPa 0,0 l/m 12,9 km/h (3 Bft) NO 45 12,7 C 22,8 C 32,1 km/h (5 Bft)
19.05.2019 15:24 16,5 C 22,8 C 25,0 C 17,1 C 35,7 C 34,1 C 69 % 51 % 32 % 21 % 1003,7 hPa 0,0 l/m 12,1 km/h (2 Bft) N-NO 22 12,1 C 22,8 C 24,4 km/h (4 Bft)
19.05.2019 15:22 16,5 C 22,8 C 25,0 C 17,0 C 35,8 C 34,3 C 68 % 52 % 31 % 21 % 1003,7 hPa 0,0 l/m 10,3 km/h (2 Bft) N-NO 22 12,4 C 22,8 C 32,1 km/h (5 Bft)
19.05.2019 15:20 16,5 C 22,9 C 25,0 C 17,0 C 36,4 C 34,7 C 68 % 52 % 31 % 21 % 1003,7 hPa 0,0 l/m 9,8 km/h (2 Bft) N 360 12,5 C 22,9 C 27,0 km/h (4 Bft)
19.05.2019 15:18 16,5 C 23,1 C 25,2 C 17,0 C 37,1 C 34,9 C 68 % 49 % 32 % 21 % 1003,7 hPa 0,0 l/m 9,7 km/h (2 Bft) N-NO 22 11,8 C 23,1 C 39,1 km/h (6 Bft)
19.05.2019 15:16 16,5 C 23,3 C 25,3 C 17,0 C 37,8 C 35,2 C 68 % 48 % 31 % 21 % 1003,7 hPa 0,0 l/m 8,2 km/h (2 Bft) N-NO 22 11,7 C 23,3 C 23,2 km/h (4 Bft)
19.05.2019 15:14 16,5 C 23,3 C 25,8 C 17,0 C 38,1 C 35,6 C 68 % 49 % 31 % 20 % 1003,7 hPa 0,0 l/m 8,2 km/h (2 Bft) NO 45 12,0 C 23,3 C 19,3 km/h (3 Bft)
19.05.2019 15:12 16,5 C 23,3 C 25,8 C 16,9 C 39,1 C 35,9 C 68 % 48 % 31 % 20 % 1003,7 hPa 0,0 l/m 8,2 km/h (2 Bft) N 360 11,7 C 23,3 C 9,9 km/h (2 Bft)
19.05.2019 15:10 16,5 C 23,4 C 25,9 C 16,9 C 39,4 C 36,2 C 68 % 49 % 31 % 20 % 1003,7 hPa 0,0 l/m 8,9 km/h (2 Bft) N-NO 22 12,1 C 23,4 C 16,9 km/h (3 Bft)
19.05.2019 15:08 16,5 C 23,5 C 26,6 C 16,9 C 40,4 C 36,8 C 68 % 49 % 29 % 19 % 1003,7 hPa 0,0 l/m 8,5 km/h (2 Bft) NO 45 12,2 C 23,5 C 14,0 km/h (3 Bft)
19.05.2019 15:06 16,5 C 23,8 C 26,6 C 16,9 C 40,8 C 37,2 C 68 % 47 % 29 % 19 % 1003,7 hPa 0,0 l/m 8,9 km/h (2 Bft) NO 45 11,8 C 23,8 C 15,7 km/h (3 Bft)
19.05.2019 15:04 16,5 C 24,1 C 26,3 C 16,9 C 41,7 C 38,3 C 68 % 46 % 28 % 17 % 1003,7 hPa 0,0 l/m 8,9 km/h (2 Bft) NO 45 11,7 C 24,1 C 15,0 km/h (3 Bft)
19.05.2019 15:02 16,5 C 24,6 C 27,8 C 16,9 C 42,7 C 38,6 C 68 % 45 % 29 % 17 % 1003,7 hPa 0,0 l/m 8,9 km/h (2 Bft) N-NW 337 11,9 C 24,6 C 16,9 km/h (3 Bft)
19.05.2019 15:00 16,5 C 24,9 C 30,1 C 16,9 C 43,5 C 39,1 C 68 % 47 % 29 % 15 % 1003,7 hPa 0,0 l/m 9,8 km/h (2 Bft) NO 45 12,8 C 24,9 C 16,2 km/h (3 Bft)
19.05.2019 14:58 16,6 C 25,0 C 31,4 C 16,8 C 45,4 C 39,3 C 68 % 44 % 29 % 14 % 1003,7 hPa 0,0 l/m 10,8 km/h (2 Bft) NO 45 11,9 C 25,0 C 21,7 km/h (4 Bft)
19.05.2019 14:56 16,5 C 24,8 C 31,0 C 16,8 C 44,3 C 39,1 C 68 % 43 % 28 % 15 % 1003,7 hPa 0,0 l/m 10,9 km/h (2 Bft) N-NO 22 11,4 C 24,8 C 20,3 km/h (4 Bft)
19.05.2019 14:54 16,5 C 24,7 C 29,0 C 16,8 C 43,9 C 39,3 C 68 % 44 % 28 % 15 % 1003,7 hPa 0,0 l/m 11,1 km/h (2 Bft) NO 45 11,6 C 24,7 C 21,2 km/h (4 Bft)
19.05.2019 14:52 16,5 C 24,8 C 28,6 C 16,8 C 43,6 C 40,0 C 69 % 44 % 27 % 13 % 1003,7 hPa 0,0 l/m 11,1 km/h (2 Bft) NO 45 11,7 C 24,8 C 17,6 km/h (3 Bft)
19.05.2019 14:50 16,5 C 25,5 C 34,2 C 16,8 C 45,9 C 40,9 C 68 % 43 % 27 % 11 % 1003,6 hPa 0,0 l/m 11,1 km/h (2 Bft) NO 45 12,0 C 25,5 C 28,0 km/h (4 Bft)
19.05.2019 14:48 16,5 C 25,7 C 34,2 C 16,7 C 48,0 C 41,1 C 68 % 45 % 30 % 11 % 1003,6 hPa 0,0 l/m 9,8 km/h (2 Bft) N-NO 22 12,9 C 25,7 C 18,6 km/h (3 Bft)
19.05.2019 14:46 16,5 C 25,7 C 33,2 C 16,7 C 47,1 C 40,6 C 68 % 44 % 28 % 12 % 1003,6 hPa 0,0 l/m 9,0 km/h (2 Bft) NO 45 12,5 C 25,7 C 19,1 km/h (3 Bft)
19.05.2019 14:44 16,5 C 25,7 C 34,2 C 16,7 C 46,6 C 40,4 C 69 % 45 % 28 % 12 % 1003,6 hPa 0,0 l/m 9,3 km/h (2 Bft) N-NO 22 12,9 C 25,7 C 13,0 km/h (3 Bft)
19.05.2019 14:42 16,5 C 25,6 C 34,1 C 16,7 C 46,5 C 40,2 C 69 % 43 % 27 % 12 % 1003,6 hPa 0,0 l/m 9,7 km/h (2 Bft) N-NO 22 12,1 C 25,6 C 21,0 km/h (4 Bft)
19.05.2019 14:40 16,5 C 25,6 C 33,7 C 16,7 C 46,2 C 39,9 C 69 % 45 % 28 % 13 % 1003,6 hPa 0,0 l/m 9,5 km/h (2 Bft) NO 45 12,8 C 25,6 C 20,3 km/h (4 Bft)
19.05.2019 14:38 16,5 C 25,5 C 33,6 C 16,6 C 45,6 C 39,7 C 69 % 46 % 27 % 13 % 1003,6 hPa 0,0 l/m 8,9 km/h (2 Bft) S-SO 157 13,0 C 25,5 C 9,4 km/h (2 Bft)
19.05.2019 14:36 16,5 C 25,4 C 33,6 C 16,6 C 45,3 C 39,6 C 69 % 45 % 27 % 13 % 1003,6 hPa 0,0 l/m 9,5 km/h (2 Bft) N-NO 22 12,6 C 25,4 C 15,2 km/h (3 Bft)
19.05.2019 14:34 16,5 C 25,3 C 33,7 C 16,6 C 45,0 C 39,4 C 69 % 44 % 27 % 13 % 1003,6 hPa 0,0 l/m 9,2 km/h (2 Bft) N-NO 22 12,2 C 25,3 C 16,2 km/h (3 Bft)
19.05.2019 14:32 16,5 C 25,3 C 33,0 C 16,6 C 44,0 C 39,2 C 69 % 44 % 27 % 14 % 1003,6 hPa 0,0 l/m 9,3 km/h (2 Bft) N-NO 22 12,2 C 25,3 C 16,7 km/h (3 Bft)
19.05.2019 14:30 16,5 C 25,0 C 32,3 C 16,5 C 43,3 C 38,9 C 69 % 45 % 26 % 14 % 1003,6 hPa 0,0 l/m 9,3 km/h (2 Bft) N-NO 22 12,2 C 25,0 C 11,8 km/h (2 Bft)
19.05.2019 14:28 16,5 C 24,8 C 30,8 C 16,5 C 43,3 C 38,5 C 69 % 46 % 28 % 15 % 1003,6 hPa 0,0 l/m 9,7 km/h (2 Bft) N-NO 22 12,4 C 24,8 C 31,9 km/h (5 Bft)
19.05.2019 14:26 16,5 C 24,8 C 29,5 C 16,5 C 43,2 C 38,3 C 69 % 45 % 28 % 15 % 1003,6 hPa 0,0 l/m 9,8 km/h (2 Bft) O-NO 67 12,0 C 24,8 C 21,5 km/h (4 Bft)
19.05.2019 14:24 16,4 C 24,8 C 30,9 C 16,5 C 42,9 C 38,3 C 69 % 45 % 26 % 15 % 1003,6 hPa 0,0 l/m 9,3 km/h (2 Bft) O-NO 67 12,0 C 24,8 C 31,9 km/h (5 Bft)
19.05.2019 14:22 16,5 C 25,0 C 30,5 C 16,5 C 42,9 C 38,4 C 69 % 43 % 26 % 15 % 1003,6 hPa 0,0 l/m 8,9 km/h (2 Bft) N-NO 22 11,5 C 25,0 C 24,1 km/h (4 Bft)
19.05.2019 14:20 16,5 C 25,2 C 30,8 C 16,5 C 41,6 C 38,3 C 69 % 44 % 22 % 15 % 1003,6 hPa 0,0 l/m 8,5 km/h (2 Bft) O-SO 112 12,1 C 25,2 C 17,6 km/h (3 Bft)
19.05.2019 14:18 16,4 C 25,7 C 30,6 C 16,4 C 41,5 C 38,3 C 69 % 44 % 22 % 15 % 1003,6 hPa 0,0 l/m 8,4 km/h (2 Bft) NO 45 12,5 C 25,7 C 30,2 km/h (5 Bft)
19.05.2019 14:16 16,5 C 25,8 C 33,4 C 16,4 C 39,3 C 38,4 C 69 % 45 % 17 % 14 % 1003,6 hPa 0,0 l/m 7,7 km/h (2 Bft) N-NO 22 13,0 C 25,8 C 20,3 km/h (4 Bft)
19.05.2019 14:14 16,4 C 25,7 C 33,2 C 16,4 C 33,9 C 38,3 C 68 % 46 % 5 % 14 % 1003,6 hPa 0,0 l/m 7,7 km/h (2 Bft) O-NO 67 13,2 C 25,7 C 8,4 km/h (2 Bft)
19.05.2019 14:12 16,5 C 25,7 C 33,5 C 16,4 C 31,4 C 38,3 C 69 % 45 % 0 % 14 % 1003,6 hPa 0,0 l/m 8,2 km/h (2 Bft) N-NO 22 12,9 C 25,7 C 16,7 km/h (3 Bft)
19.05.2019 14:10 16,5 C 25,6 C 33,7 C 16,4 C 26,7 C 38,3 C 68 % 44 % 0 % 14 % 1003,6 hPa 0,0 l/m 8,0 km/h (2 Bft) NO 45 12,4 C 25,6 C 16,2 km/h (3 Bft)
19.05.2019 14:08 16,4 C 25,6 C 33,1 C 16,4 C 23,9 C 38,4 C 68 % 46 % 99 % 14 % 1003,6 hPa 0,0 l/m 7,9 km/h (2 Bft) NO 45 13,1 C 25,6 C 17,1 km/h (3 Bft)
19.05.2019 14:06 16,4 C 25,6 C 32,8 C 16,3 C 23,2 C 38,5 C 68 % 45 % 99 % 14 % 1003,6 hPa 0,0 l/m 7,9 km/h (2 Bft) N-NO 22 12,8 C 25,6 C 19,1 km/h (3 Bft)
19.05.2019 14:04 16,5 C 25,7 C 33,1 C 16,3 C 23,5 C 38,7 C 68 % 47 % 99 % 13 % 1003,6 hPa 0,0 l/m 8,0 km/h (2 Bft) N-NO 22 13,5 C 25,7 C 14,7 km/h (3 Bft)
19.05.2019 14:02 16,4 C 25,7 C 33,6 C 16,3 C 24,7 C 38,6 C 68 % 46 % 99 % 13 % 1003,6 hPa 0,0 l/m 8,9 km/h (2 Bft) N-NO 22 13,2 C 25,7 C 17,4 km/h (3 Bft)
19.05.2019 14:00 16,5 C 25,6 C 34,1 C 16,3 C 27,8 C 38,5 C 68 % 47 % 1 % 13 % 1003,6 hPa 0,0 l/m 8,5 km/h (2 Bft) O-NO 67 13,4 C 25,6 C 9,4 km/h (2 Bft)
19.05.2019 13:58 16,4 C 25,6 C 33,4 C 16,3 C 29,7 C 38,4 C 68 % 44 % 5 % 13 % 1003,6 hPa 0,0 l/m 8,2 km/h (2 Bft) N-NO 22 12,4 C 25,6 C 13,0 km/h (3 Bft)
19.05.2019 13:56 16,4 C 25,7 C 33,8 C 16,2 C 32,3 C 38,3 C 68 % 45 % 11 % 13 % 1003,6 hPa 0,0 l/m 7,9 km/h (2 Bft) N-NO 22 12,9 C 25,7 C 9,2 km/h (2 Bft)
19.05.2019 13:54 16,4 C 25,7 C 33,7 C 16,2 C 33,7 C 38,0 C 68 % 44 % 16 % 13 % 1003,6 hPa 0,0 l/m 8,0 km/h (2 Bft) N-NO 22 12,5 C 25,7 C 20,8 km/h (4 Bft)
19.05.2019 13:52 16,4 C 25,7 C 34,1 C 16,2 C 41,0 C 37,8 C 68 % 46 % 31 % 14 % 1003,6 hPa 0,0 l/m 6,6 km/h (2 Bft) N-NO 22 13,2 C 25,7 C 15,7 km/h (3 Bft)
19.05.2019 13:50 16,4 C 25,4 C 33,7 C 16,2 C 49,0 C 37,5 C 68 % 46 % 45 % 14 % 1003,9 hPa 0,0 l/m 6,4 km/h (2 Bft) NO 45 12,9 C 25,4 C 12,1 km/h (2 Bft)
19.05.2019 13:48 16,4 C 25,4 C 33,3 C 16,2 C 51,7 C 37,0 C 68 % 43 % 52 % 14 % 1003,9 hPa 0,0 l/m 5,8 km/h (2 Bft) N-NW 337 11,9 C 25,4 C 12,1 km/h (2 Bft)
19.05.2019 13:46 16,4 C 25,4 C 34,1 C 16,1 C 53,9 C 36,9 C 68 % 45 % 57 % 14 % 1003,9 hPa 0,0 l/m 5,8 km/h (2 Bft) N 360 12,6 C 25,4 C 12,1 km/h (2 Bft)
19.05.2019 13:44 16,4 C 25,2 C 33,2 C 16,1 C 54,9 C 36,7 C 68 % 45 % 61 % 14 % 1003,9 hPa 0,0 l/m 5,0 km/h (1 Bft) N-NO 22 12,4 C 25,2 C 13,3 km/h (3 Bft)
19.05.2019 13:42 16,4 C 24,7 C 33,6 C 16,1 C 57,5 C 36,5 C 68 % 49 % 69 % 14 % 1003,9 hPa 0,0 l/m 4,5 km/h (1 Bft) N-NO 22 13,3 C 24,7 C 8,2 km/h (2 Bft)
19.05.2019 13:40 16,4 C 24,3 C 31,8 C 16,1 C 61,3 C 36,1 C 68 % 47 % 75 % 15 % 1003,9 hPa 0,0 l/m 3,4 km/h (1 Bft) N-NO 22 12,3 C 24,3 C 12,8 km/h (3 Bft)
19.05.2019 13:38 16,4 C 24,3 C 29,2 C 16,1 C 63,1 C 36,1 C 68 % 46 % 80 % 15 % 1003,9 hPa 0,0 l/m 3,2 km/h (1 Bft) O-SO 112 11,9 C 24,3 C 3,9 km/h (1 Bft)
19.05.2019 13:36 16,4 C 24,3 C 28,0 C 16,0 C 56,7 C 36,3 C 68 % 44 % 66 % 14 % 1003,9 hPa 0,0 l/m 3,1 km/h (1 Bft) O-SO 112 11,3 C 24,3 C 13,8 km/h (3 Bft)
19.05.2019 13:34 16,4 C 24,6 C 30,1 C 16,0 C 48,7 C 36,8 C 68 % 48 % 45 % 13 % 1003,9 hPa 0,0 l/m 3,1 km/h (1 Bft) N-NO 22 12,8 C 24,6 C 7,5 km/h (2 Bft)
19.05.2019 13:32 16,4 C 25,0 C 32,3 C 16,0 C 56,1 C 36,8 C 68 % 45 % 59 % 13 % 1003,9 hPa 0,0 l/m 4,2 km/h (1 Bft) NO 45 12,2 C 25,0 C 3,1 km/h (1 Bft)
19.05.2019 13:30 16,4 C 25,2 C 32,7 C 16,0 C 73,0 C 36,8 C 68 % 45 % 99 % 13 % 1004,1 hPa 0,0 l/m 4,8 km/h (1 Bft) SO 135 12,4 C 25,2 C 4,6 km/h (1 Bft)
19.05.2019 13:28 16,4 C 25,0 C 33,8 C 16,0 C 73,0 C 36,7 C 68 % 49 % 99 % 13 % 1004,1 hPa 0,0 l/m 5,1 km/h (1 Bft) N 360 13,5 C 25,0 C 3,4 km/h (1 Bft)
19.05.2019 13:26 16,4 C 24,7 C 33,3 C 15,9 C 73,0 C 36,2 C 68 % 49 % 99 % 14 % 1004,1 hPa 0,0 l/m 6,1 km/h (2 Bft) NO 45 13,3 C 24,7 C 8,4 km/h (2 Bft)
19.05.2019 13:24 16,4 C 24,4 C 30,3 C 15,9 C 73,0 C 36,1 C 68 % 48 % 99 % 14 % 1004,1 hPa 0,0 l/m 6,3 km/h (2 Bft) NO 45 12,7 C 24,4 C 8,2 km/h (2 Bft)
19.05.2019 13:22 16,4 C 24,3 C 28,0 C 15,9 C 73,0 C 36,1 C 68 % 48 % 99 % 14 % 1004,1 hPa 0,0 l/m 6,6 km/h (2 Bft) N-NO 22 12,6 C 24,3 C 20,8 km/h (4 Bft)
19.05.2019 13:20 16,4 C 24,6 C 29,0 C 15,9 C 45,4 C 36,4 C 68 % 45 % 36 % 13 % 1004,1 hPa 0,0 l/m 6,4 km/h (2 Bft) NW 315 11,9 C 24,6 C 6,0 km/h (2 Bft)
19.05.2019 13:18 16,4 C 25,0 C 30,1 C 15,9 C 69,4 C 36,7 C 68 % 47 % 88 % 13 % 1004,1 hPa 0,0 l/m 6,8 km/h (2 Bft) NW 315 12,9 C 25,0 C 8,0 km/h (2 Bft)
19.05.2019 13:16 16,4 C 25,2 C 31,9 C 15,8 C 73,0 C 36,8 C 68 % 44 % 99 % 13 % 1004,1 hPa 0,0 l/m 6,3 km/h (2 Bft) N-NO 22 12,1 C 25,2 C 10,1 km/h (2 Bft)
19.05.2019 13:14 16,4 C 25,3 C 32,6 C 15,8 C 59,0 C 36,5 C 68 % 44 % 64 % 13 % 1004,1 hPa 0,0 l/m 5,8 km/h (2 Bft) N-NO 22 12,2 C 25,3 C 6,8 km/h (2 Bft)
19.05.2019 13:12 16,4 C 25,5 C 33,1 C 15,8 C 71,9 C 36,5 C 68 % 45 % 87 % 13 % 1004,1 hPa 0,0 l/m 5,5 km/h (1 Bft) NO 45 12,7 C 25,5 C 18,1 km/h (3 Bft)
19.05.2019 13:10 16,5 C 25,7 C 33,4 C 15,8 C 67,3 C 36,5 C 68 % 47 % 81 % 13 % 1004,5 hPa 0,0 l/m 4,3 km/h (1 Bft) NO 45 13,5 C 25,7 C 12,3 km/h (3 Bft)
19.05.2019 13:08 16,4 C 25,5 C 34,3 C 15,8 C 66,0 C 36,4 C 68 % 46 % 79 % 13 % 1004,5 hPa 0,0 l/m 3,7 km/h (1 Bft) N-NO 22 13,0 C 25,5 C 13,3 km/h (3 Bft)
19.05.2019 13:06 16,4 C 25,4 C 33,9 C 15,8 C 57,6 C 36,3 C 68 % 46 % 63 % 13 % 1004,5 hPa 0,0 l/m 3,4 km/h (1 Bft) O-NO 67 12,9 C 25,4 C 8,0 km/h (2 Bft)
19.05.2019 13:04 16,4 C 25,0 C 35,0 C 15,8 C 62,5 C 35,7 C 68 % 50 % 74 % 13 % 1004,5 hPa 0,0 l/m 3,7 km/h (1 Bft) O-NO 67 13,8 C 25,0 C 5,6 km/h (1 Bft)
19.05.2019 13:02 16,4 C 24,8 C 33,4 C 15,7 C 56,9 C 35,5 C 68 % 47 % 62 % 13 % 1004,5 hPa 0,0 l/m 4,0 km/h (1 Bft) O-NO 67 12,7 C 24,8 C 5,3 km/h (1 Bft)
19.05.2019 13:00 16,4 C 24,5 C 33,0 C 15,7 C 53,3 C 35,1 C 68 % 45 % 56 % 13 % 1004,5 hPa 0,0 l/m 4,0 km/h (1 Bft) NO 45 11,8 C 24,5 C 0,0 km/h (0 Bft)
19.05.2019 12:58 16,4 C 24,1 C 31,6 C 15,7 C 50,5 C 34,6 C 68 % 46 % 52 % 13 % 1004,5 hPa 0,0 l/m 4,2 km/h (1 Bft) O-NO 67 11,7 C 24,1 C 12,8 km/h (3 Bft)
19.05.2019 12:56 16,4 C 24,0 C 29,9 C 15,7 C 47,6 C 34,5 C 68 % 45 % 48 % 13 % 1004,5 hPa 0,0 l/m 3,9 km/h (1 Bft) W 270 11,3 C 24,0 C 6,3 km/h (2 Bft)
19.05.2019 12:54 16,4 C 23,9 C 29,9 C 15,7 C 45,3 C 34,4 C 68 % 48 % 42 % 13 % 1004,5 hPa 0,0 l/m 3,7 km/h (1 Bft) SO 135 12,2 C 23,9 C 11,3 km/h (2 Bft)
19.05.2019 12:52 16,4 C 23,8 C 29,4 C 15,6 C 45,1 C 34,3 C 68 % 47 % 43 % 13 % 1004,5 hPa 0,0 l/m 2,9 km/h (1 Bft) O-NO 67 11,8 C 23,8 C 10,4 km/h (2 Bft)
19.05.2019 12:50 16,4 C 24,0 C 28,5 C 15,6 C 42,4 C 34,3 C 68 % 48 % 38 % 13 % 1004,4 hPa 0,0 l/m 3,2 km/h (1 Bft) O 90 12,3 C 24,0 C 4,8 km/h (1 Bft)
19.05.2019 12:48 16,4 C 24,2 C 29,5 C 15,6 C 42,8 C 34,4 C 68 % 49 % 38 % 13 % 1004,4 hPa 0,0 l/m 4,0 km/h (1 Bft) N-NO 22 12,8 C 24,2 C 7,5 km/h (2 Bft)
19.05.2019 12:46 16,4 C 24,5 C 32,8 C 15,6 C 42,7 C 34,4 C 68 % 48 % 38 % 13 % 1004,4 hPa 0,0 l/m 4,5 km/h (1 Bft) N-NO 22 12,8 C 24,5 C 8,0 km/h (2 Bft)
19.05.2019 12:44 16,4 C 24,5 C 32,5 C 15,6 C 45,6 C 34,3 C 68 % 49 % 44 % 13 % 1004,4 hPa 0,0 l/m 4,2 km/h (1 Bft) NO 45 13,1 C 24,5 C 9,7 km/h (2 Bft)
19.05.2019 12:42 16,4 C 24,3 C 31,9 C 15,6 C 42,8 C 34,2 C 68 % 47 % 38 % 13 % 1004,4 hPa 0,0 l/m 4,8 km/h (1 Bft) SO 135 12,3 C 24,3 C 2,4 km/h (1 Bft)
19.05.2019 12:40 16,4 C 24,2 C 32,3 C 15,6 C 44,1 C 34,0 C 69 % 48 % 41 % 13 % 1004,4 hPa 0,0 l/m 5,0 km/h (1 Bft) NO 45 12,5 C 24,2 C 9,7 km/h (2 Bft)
19.05.2019 12:38 16,4 C 24,1 C 31,8 C 15,6 C 44,5 C 33,7 C 69 % 48 % 44 % 13 % 1004,4 hPa 0,0 l/m 5,1 km/h (1 Bft) N-NO 22 12,4 C 24,1 C 8,4 km/h (2 Bft)
19.05.2019 12:36 16,4 C 23,7 C 30,9 C 15,5 C 45,1 C 33,5 C 69 % 47 % 45 % 13 % 1004,4 hPa 0,0 l/m 5,5 km/h (1 Bft) N-NO 22 11,7 C 23,7 C 14,5 km/h (3 Bft)
19.05.2019 12:34 16,4 C 23,8 C 30,5 C 15,5 C 43,5 C 33,2 C 69 % 48 % 41 % 14 % 1004,4 hPa 0,0 l/m 5,3 km/h (1 Bft) S-SW 202 12,1 C 23,8 C 4,6 km/h (1 Bft)
19.05.2019 12:32 16,4 C 24,0 C 29,4 C 15,5 C 43,6 C 33,1 C 69 % 48 % 41 % 13 % 1004,4 hPa 0,0 l/m 5,8 km/h (2 Bft) N-NO 22 12,3 C 24,0 C 7,2 km/h (2 Bft)
19.05.2019 12:30 16,4 C 24,2 C 31,2 C 15,5 C 44,3 C 33,1 C 69 % 49 % 42 % 13 % 1004,6 hPa 0,0 l/m 6,0 km/h (2 Bft) O-NO 67 12,8 C 24,2 C 11,1 km/h (2 Bft)
19.05.2019 12:28 16,4 C 24,0 C 32,2 C 15,5 C 45,1 C 33,0 C 69 % 51 % 44 % 13 % 1004,6 hPa 0,0 l/m 6,3 km/h (2 Bft) NO 45 13,2 C 24,0 C 10,4 km/h (2 Bft)
19.05.2019 12:26 16,2 C 23,8 C 30,5 C 15,5 C 44,3 C 32,8 C 69 % 47 % 43 % 13 % 1004,6 hPa 0,0 l/m 6,3 km/h (2 Bft) N-NO 22 11,8 C 23,8 C 15,7 km/h (3 Bft)
19.05.2019 12:24 16,4 C 23,8 C 30,4 C 15,5 C 46,9 C 32,7 C 69 % 47 % 48 % 13 % 1004,6 hPa 0,0 l/m 6,8 km/h (2 Bft) O-NO 67 11,8 C 23,8 C 6,5 km/h (2 Bft)
19.05.2019 12:22 16,2 C 23,8 C 31,3 C 15,5 C 44,4 C 32,3 C 69 % 50 % 43 % 13 % 1004,6 hPa 0,0 l/m 6,8 km/h (2 Bft) N-NO 22 12,7 C 23,8 C 8,7 km/h (2 Bft)
19.05.2019 12:20 16,4 C 23,6 C 31,5 C 15,4 C 44,3 C 32,3 C 69 % 51 % 42 % 13 % 1004,6 hPa 0,0 l/m 6,9 km/h (2 Bft) N 360 12,9 C 23,6 C 11,8 km/h (2 Bft)
19.05.2019 12:18 16,2 C 23,2 C 30,4 C 15,4 C 43,3 C 32,1 C 69 % 51 % 41 % 14 % 1004,6 hPa 0,0 l/m 6,9 km/h (2 Bft) N-NO 22 12,5 C 23,2 C 16,2 km/h (3 Bft)
19.05.2019 12:16 16,2 C 23,1 C 30,3 C 15,4 C 46,3 C 31,9 C 69 % 50 % 48 % 13 % 1004,6 hPa 0,0 l/m 6,8 km/h (2 Bft) N-NO 22 12,1 C 23,1 C 13,5 km/h (3 Bft)
19.05.2019 12:14 16,4 C 22,6 C 28,9 C 15,4 C 44,9 C 31,7 C 69 % 54 % 46 % 13 % 1004,6 hPa 0,0 l/m 6,8 km/h (2 Bft) N-NO 22 12,8 C 22,6 C 16,2 km/h (3 Bft)
19.05.2019 12:12 16,2 C 22,1 C 26,7 C 15,4 C 41,6 C 31,5 C 69 % 53 % 41 % 13 % 1004,6 hPa 0,0 l/m 6,4 km/h (2 Bft) NO 45 12,1 C 22,1 C 10,4 km/h (2 Bft)
19.05.2019 12:10 16,2 C 22,1 C 25,3 C 15,4 C 39,0 C 31,4 C 69 % 53 % 36 % 11 % 1004,7 hPa 0,0 l/m 6,6 km/h (2 Bft) O-SO 112 12,1 C 22,1 C 6,8 km/h (2 Bft)
19.05.2019 12:08 16,4 C 22,5 C 25,0 C 15,4 C 38,8 C 31,4 C 69 % 54 % 35 % 11 % 1004,7 hPa 0,0 l/m 6,9 km/h (2 Bft) N-NO 22 12,7 C 22,5 C 16,2 km/h (3 Bft)
19.05.2019 12:06 16,2 C 22,7 C 25,3 C 15,3 C 39,3 C 31,7 C 69 % 54 % 34 % 11 % 1004,7 hPa 0,0 l/m 6,6 km/h (2 Bft) NO 45 12,9 C 22,7 C 10,1 km/h (2 Bft)
19.05.2019 12:04 16,2 C 23,4 C 26,4 C 15,3 C 40,5 C 31,8 C 69 % 51 % 34 % 10 % 1004,7 hPa 0,0 l/m 6,4 km/h (2 Bft) O-NO 67 12,7 C 23,4 C 15,7 km/h (3 Bft)
19.05.2019 12:02 16,4 C 23,5 C 28,8 C 15,3 C 41,7 C 31,9 C 69 % 51 % 33 % 10 % 1004,7 hPa 0,0 l/m 6,0 km/h (2 Bft) O-SO 112 12,8 C 23,5 C 9,7 km/h (2 Bft)
19.05.2019 12:00 16,2 C 23,6 C 28,8 C 15,3 C 41,7 C 31,9 C 69 % 49 % 33 % 10 % 1004,7 hPa 0,0 l/m 6,0 km/h (2 Bft) NO 45 12,2 C 23,6 C 9,7 km/h (2 Bft)
19.05.2019 11:58 16,2 C 23,6 C 29,2 C 15,3 C 41,5 C 31,9 C 69 % 51 % 33 % 10 % 1004,7 hPa 0,0 l/m 5,6 km/h (1 Bft) O-NO 67 12,9 C 23,6 C 11,8 km/h (2 Bft)
19.05.2019 11:56 16,2 C 23,6 C 28,0 C 15,3 C 41,6 C 31,7 C 69 % 49 % 33 % 10 % 1004,7 hPa 0,0 l/m 5,0 km/h (1 Bft) N-NO 22 12,2 C 23,6 C 8,7 km/h (2 Bft)
19.05.2019 11:54 16,3 C 23,8 C 30,1 C 15,3 C 42,4 C 31,6 C 69 % 49 % 34 % 10 % 1004,7 hPa 0,0 l/m 5,1 km/h (1 Bft) N-NO 22 12,4 C 23,8 C 13,3 km/h (3 Bft)
19.05.2019 11:52 16,3 C 23,8 C 32,2 C 15,3 C 42,3 C 31,5 C 69 % 51 % 33 % 9 % 1004,7 hPa 0,0 l/m 5,3 km/h (1 Bft) N-NO 22 13,0 C 23,8 C 5,1 km/h (1 Bft)
19.05.2019 11:50 16,3 C 23,6 C 30,9 C 15,3 C 41,9 C 31,3 C 69 % 47 % 33 % 9 % 1004,8 hPa 0,0 l/m 5,3 km/h (1 Bft) W-SW 247 11,6 C 23,6 C 9,2 km/h (2 Bft)
19.05.2019 11:48 16,3 C 23,4 C 29,2 C 15,3 C 41,5 C 31,0 C 69 % 48 % 33 % 8 % 1004,8 hPa 0,0 l/m 5,5 km/h (1 Bft) N-NO 22 11,8 C 23,4 C 10,9 km/h (2 Bft)
19.05.2019 11:46 16,2 C 23,5 C 30,1 C 15,3 C 41,6 C 31,0 C 69 % 47 % 34 % 8 % 1004,8 hPa 0,0 l/m 5,6 km/h (1 Bft) O-NO 67 11,5 C 23,5 C 5,8 km/h (2 Bft)
19.05.2019 11:44 16,3 C 23,4 C 31,6 C 15,2 C 41,3 C 30,7 C 69 % 51 % 35 % 6 % 1004,8 hPa 0,0 l/m 6,1 km/h (2 Bft) O-NO 67 12,7 C 23,4 C 12,3 km/h (3 Bft)
19.05.2019 11:42 16,2 C 23,0 C 30,4 C 15,2 C 40,4 C 30,5 C 69 % 48 % 34 % 6 % 1004,8 hPa 0,0 l/m 6,1 km/h (2 Bft) O-NO 67 11,4 C 23,0 C 11,3 km/h (2 Bft)
19.05.2019 11:40 16,2 C 22,9 C 28,9 C 15,2 C 39,7 C 30,4 C 69 % 48 % 34 % 5 % 1004,8 hPa 0,0 l/m 6,9 km/h (2 Bft) N-NO 22 11,3 C 22,9 C 13,5 km/h (3 Bft)
19.05.2019 11:38 16,2 C 22,9 C 29,4 C 15,2 C 39,7 C 30,2 C 69 % 50 % 34 % 5 % 1004,8 hPa 0,0 l/m 6,9 km/h (2 Bft) N-NO 22 11,9 C 22,9 C 10,4 km/h (2 Bft)
19.05.2019 11:36 16,2 C 22,7 C 28,4 C 15,3 C 39,3 C 30,1 C 69 % 51 % 33 % 4 % 1004,8 hPa 0,0 l/m 7,1 km/h (2 Bft) NO 45 12,0 C 22,7 C 8,2 km/h (2 Bft)
19.05.2019 11:34 16,2 C 22,7 C 28,3 C 15,3 C 39,3 C 30,1 C 69 % 51 % 32 % 4 % 1004,8 hPa 0,0 l/m 6,6 km/h (2 Bft) N-NO 22 12,0 C 22,7 C 16,9 km/h (3 Bft)
19.05.2019 11:32 16,2 C 22,6 C 28,4 C 15,3 C 39,5 C 30,1 C 69 % 51 % 34 % 3 % 1004,8 hPa 0,0 l/m 6,6 km/h (2 Bft) N-NO 22 11,9 C 22,6 C 8,9 km/h (2 Bft)
19.05.2019 11:30 16,2 C 22,5 C 27,7 C 15,3 C 38,9 C 30,0 C 69 % 53 % 32 % 3 % 1004,9 hPa 0,0 l/m 6,4 km/h (2 Bft) N-NO 22 12,4 C 22,5 C 15,2 km/h (3 Bft)
19.05.2019 11:28 16,2 C 22,5 C 26,1 C 15,3 C 39,3 C 30,0 C 69 % 51 % 32 % 3 % 1004,9 hPa 0,0 l/m 6,4 km/h (2 Bft) N-NO 22 11,8 C 22,5 C 14,7 km/h (3 Bft)
19.05.2019 11:26 16,2 C 22,8 C 29,5 C 15,3 C 39,7 C 30,1 C 69 % 51 % 32 % 1 % 1004,9 hPa 0,0 l/m 6,3 km/h (2 Bft) NO 45 12,1 C 22,8 C 11,3 km/h (2 Bft)
19.05.2019 11:24 16,2 C 22,7 C 29,3 C 15,3 C 39,6 C 29,9 C 69 % 54 % 35 % 1 % 1004,9 hPa 0,0 l/m 6,0 km/h (2 Bft) NO 45 12,9 C 22,7 C 5,8 km/h (2 Bft)
19.05.2019 11:22 16,2 C 22,6 C 28,0 C 15,3 C 39,1 C 29,8 C 69 % 55 % 34 % 0 % 1004,9 hPa 0,0 l/m 5,8 km/h (2 Bft) O-NO 67 13,1 C 22,6 C 16,2 km/h (3 Bft)
19.05.2019 11:20 16,2 C 22,6 C 28,3 C 15,3 C 39,7 C 29,7 C 69 % 56 % 34 % 0 % 1004,9 hPa 0,0 l/m 5,6 km/h (1 Bft) N-NO 22 13,4 C 22,6 C 9,2 km/h (2 Bft)
19.05.2019 11:18 16,2 C 22,3 C 27,4 C 15,3 C 39,5 C 29,6 C 69 % 53 % 33 % 0 % 1004,9 hPa 0,0 l/m 5,1 km/h (1 Bft) O-NO 67 12,2 C 22,3 C 4,6 km/h (1 Bft)
19.05.2019 11:16 16,2 C 22,5 C 27,8 C 15,3 C 39,8 C 29,5 C 69 % 52 % 34 % 0 % 1004,9 hPa 0,0 l/m 5,3 km/h (1 Bft) NO 45 12,1 C 22,5 C 13,3 km/h (3 Bft)
19.05.2019 11:14 16,1 C 22,6 C 28,8 C 15,3 C 39,8 C 29,3 C 69 % 52 % 35 % 0 % 1004,9 hPa 0,0 l/m 5,3 km/h (1 Bft) NO 45 12,2 C 22,6 C 9,4 km/h (2 Bft)
19.05.2019 11:12 16,2 C 22,6 C 29,7 C 15,3 C 39,4 C 29,2 C 69 % 54 % 35 % 0 % 1004,9 hPa 0,0 l/m 6,0 km/h (2 Bft) O-NO 67 12,8 C 22,6 C 4,1 km/h (1 Bft)
19.05.2019 11:10 16,1 C 22,4 C 29,4 C 15,3 C 39,0 C 29,0 C 69 % 55 % 36 % 0 % 1004,9 hPa 0,0 l/m 6,1 km/h (2 Bft) N-NO 22 12,9 C 22,4 C 13,0 km/h (3 Bft)
19.05.2019 11:08 16,1 C 22,2 C 28,8 C 15,3 C 38,6 C 28,7 C 69 % 55 % 36 % 0 % 1004,9 hPa 0,0 l/m 5,6 km/h (1 Bft) O-NO 67 12,7 C 22,2 C 7,0 km/h (2 Bft)
19.05.2019 11:06 16,2 C 22,0 C 28,9 C 15,3 C 37,8 C 28,7 C 69 % 54 % 36 % 0 % 1004,9 hPa 0,0 l/m 5,5 km/h (1 Bft) N-NO 22 12,3 C 22,0 C 14,0 km/h (3 Bft)
19.05.2019 11:04 16,1 C 21,7 C 27,6 C 15,3 C 36,9 C 28,4 C 69 % 56 % 37 % 0 % 1004,9 hPa 0,0 l/m 5,3 km/h (1 Bft) NO 45 12,5 C 21,7 C 8,9 km/h (2 Bft)
19.05.2019 11:02 16,1 C 21,6 C 26,2 C 15,3 C 36,5 C 28,4 C 69 % 56 % 36 % 0 % 1004,9 hPa 0,0 l/m 4,5 km/h (1 Bft) N-NO 22 12,4 C 21,6 C 9,7 km/h (2 Bft)
19.05.2019 11:00 16,1 C 20,8 C 25,0 C 15,3 C 35,8 C 28,1 C 69 % 61 % 38 % 0 % 1004,9 hPa 0,0 l/m 2,9 km/h (1 Bft) NO 45 13,0 C 20,8 C 8,0 km/h (2 Bft)
19.05.2019 10:58 16,1 C 20,8 C 25,0 C 15,3 C 35,8 C 28,1 C 69 % 61 % 38 % 0 % 1004,9 hPa 0,0 l/m 2,9 km/h (1 Bft) NO 45 13,0 C 20,8 C 8,0 km/h (2 Bft)
19.05.2019 10:56 16,1 C 20,8 C 25,0 C 15,3 C 35,8 C 28,1 C 69 % 61 % 38 % 0 % 1004,9 hPa 0,0 l/m 2,9 km/h (1 Bft) NO 45 13,0 C 20,8 C 8,0 km/h (2 Bft)
19.05.2019 10:54 16,1 C 20,8 C 25,0 C 15,3 C 35,8 C 28,1 C 69 % 61 % 38 % 0 % 1004,9 hPa 0,0 l/m 2,9 km/h (1 Bft) NO 45 13,0 C 20,8 C 8,0 km/h (2 Bft)
19.05.2019 10:52 16,1 C 20,8 C 25,0 C 15,3 C 35,8 C 28,1 C 69 % 61 % 38 % 0 % 1004,9 hPa 0,0 l/m 2,9 km/h (1 Bft) NO 45 13,0 C 20,8 C 8,0 km/h (2 Bft)
19.05.2019 10:50 16,1 C 20,8 C 25,0 C 15,3 C 35,6 C 28,1 C 69 % 61 % 38 % 0 % 1004,9 hPa 0,0 l/m 2,9 km/h (1 Bft) NO 45 13,0 C 20,8 C 8,0 km/h (2 Bft)
19.05.2019 10:48 16,1 C 20,5 C 24,0 C 15,3 C 35,2 C 27,9 C 69 % 59 % 37 % 0 % 1004,9 hPa 0,0 l/m 3,1 km/h (1 Bft) O-NO 67 12,2 C 20,5 C 7,0 km/h (2 Bft)
19.05.2019 10:46 15,9 C 20,6 C 23,7 C 15,3 C 35,7 C 28,0 C 69 % 58 % 36 % 0 % 1004,9 hPa 0,0 l/m 3,2 km/h (1 Bft) N-NO 22 12,0 C 20,6 C 3,9 km/h (1 Bft)
19.05.2019 10:44 15,9 C 20,8 C 24,3 C 15,3 C 35,9 C 28,1 C 69 % 57 % 37 % 0 % 1004,9 hPa 0,0 l/m 3,2 km/h (1 Bft) W-SW 247 12,0 C 20,8 C 3,1 km/h (1 Bft)
19.05.2019 10:42 15,9 C 20,9 C 25,3 C 15,2 C 36,3 C 28,1 C 69 % 56 % 37 % 0 % 1004,9 hPa 0,0 l/m 3,4 km/h (1 Bft) O-NO 67 11,8 C 20,9 C 6,5 km/h (2 Bft)
19.05.2019 10:40 15,9 C 20,9 C 25,5 C 15,2 C 36,7 C 28,0 C 69 % 59 % 37 % 0 % 1004,9 hPa 0,0 l/m 3,2 km/h (1 Bft) N-NO 22 12,6 C 20,9 C 5,3 km/h (1 Bft)
19.05.2019 10:38 15,9 C 20,7 C 24,5 C 15,2 C 36,6 C 28,0 C 69 % 58 % 37 % 0 % 1004,9 hPa 0,0 l/m 3,1 km/h (1 Bft) O-NO 67 12,1 C 20,7 C 4,3 km/h (1 Bft)
19.05.2019 10:36 16,0 C 20,7 C 24,2 C 15,2 C 36,9 C 28,1 C 69 % 56 % 37 % 0 % 1004,9 hPa 0,0 l/m 2,6 km/h (1 Bft) N-NO 22 11,6 C 20,7 C 5,6 km/h (1 Bft)
19.05.2019 10:34 16,0 C 20,9 C 25,4 C 15,2 C 37,4 C 28,3 C 69 % 56 % 37 % 0 % 1004,9 hPa 0,0 l/m 1,9 km/h (1 Bft) NO 45 11,8 C 20,9 C 4,8 km/h (1 Bft)
19.05.2019 10:32 15,9 C 21,1 C 26,0 C 15,2 C 37,9 C 28,3 C 69 % 57 % 39 % 0 % 1004,9 hPa 0,0 l/m 1,9 km/h (1 Bft) O-NO 67 12,2 C 21,1 C 8,0 km/h (2 Bft)
19.05.2019 10:30 16,0 C 21,0 C 25,9 C 15,2 C 37,6 C 27,9 C 69 % 57 % 40 % 0 % 1004,9 hPa 0,0 l/m 2,1 km/h (1 Bft) O-SO 112 12,1 C 21,0 C 4,6 km/h (1 Bft)
19.05.2019 10:28 16,0 C 20,7 C 25,5 C 15,2 C 37,0 C 27,6 C 69 % 57 % 40 % 0 % 1004,9 hPa 0,0 l/m 2,3 km/h (1 Bft) NO 45 11,9 C 20,7 C 7,5 km/h (2 Bft)
19.05.2019 10:26 16,0 C 20,4 C 24,4 C 15,2 C 36,2 C 27,3 C 69 % 57 % 40 % 0 % 1004,9 hPa 0,0 l/m 2,1 km/h (1 Bft) N-NO 22 11,6 C 20,4 C 0,0 km/h (0 Bft)
19.05.2019 10:24 16,0 C 20,3 C 24,2 C 15,2 C 36,1 C 27,2 C 69 % 58 % 40 % 0 % 1004,9 hPa 0,0 l/m 2,7 km/h (1 Bft) W-SW 247 11,8 C 20,3 C 0,0 km/h (0 Bft)
19.05.2019 10:22 16,0 C 20,3 C 24,7 C 15,2 C 36,1 C 27,0 C 69 % 58 % 40 % 0 % 1004,9 hPa 0,0 l/m 2,6 km/h (1 Bft) NO 45 11,8 C 20,3 C 6,3 km/h (2 Bft)
19.05.2019 10:20 15,8 C 20,3 C 25,8 C 15,2 C 36,0 C 26,9 C 69 % 58 % 41 % 0 % 1004,9 hPa 0,0 l/m 1,9 km/h (1 Bft) N-NO 22 11,8 C 20,3 C 4,6 km/h (1 Bft)
19.05.2019 10:18 15,8 C 20,2 C 25,8 C 15,2 C 35,5 C 26,5 C 69 % 59 % 41 % 0 % 1004,9 hPa 0,0 l/m 1,6 km/h (1 Bft) O-NO 67 11,9 C 20,2 C 0,0 km/h (0 Bft)
19.05.2019 10:16 15,9 C 19,8 C 25,1 C 15,2 C 34,8 C 26,4 C 69 % 62 % 42 % 0 % 1004,9 hPa 0,0 l/m 1,8 km/h (1 Bft) O 90 12,3 C 19,8 C 4,3 km/h (1 Bft)
19.05.2019 10:14 15,8 C 19,5 C 23,9 C 15,2 C 33,8 C 26,0 C 69 % 61 % 42 % 0 % 1004,9 hPa 0,0 l/m 1,8 km/h (1 Bft) O-SO 112 11,8 C 19,5 C 5,1 km/h (1 Bft)
19.05.2019 10:12 15,9 C 19,1 C 22,6 C 15,2 C 33,2 C 26,0 C 69 % 60 % 43 % 0 % 1004,9 hPa 0,0 l/m 2,3 km/h (1 Bft) O-NO 67 11,1 C 19,1 C 0,0 km/h (0 Bft)
19.05.2019 10:10 15,9 C 19,1 C 22,2 C 15,2 C 33,2 C 25,9 C 69 % 60 % 42 % 0 % 1004,9 hPa 0,0 l/m 2,7 km/h (1 Bft) SW 225 11,1 C 19,1 C 0,0 km/h (0 Bft)
19.05.2019 10:08 15,9 C 19,5 C 22,6 C 15,1 C 33,6 C 26,1 C 70 % 61 % 42 % 0 % 1004,9 hPa 0,0 l/m 2,9 km/h (1 Bft) O-SO 112 11,8 C 19,5 C 0,0 km/h (0 Bft)
19.05.2019 10:06 15,9 C 19,6 C 23,1 C 15,3 C 33,7 C 26,0 C 70 % 63 % 44 % 0 % 1004,9 hPa 0,0 l/m 3,1 km/h (1 Bft) N-NO 22 12,4 C 19,6 C 4,6 km/h (1 Bft)
19.05.2019 10:04 15,8 C 19,7 C 23,1 C 15,3 C 33,3 C 25,6 C 70 % 62 % 45 % 0 % 1004,9 hPa 0,0 l/m 3,1 km/h (1 Bft) N-NO 22 12,2 C 19,7 C 8,7 km/h (2 Bft)
19.05.2019 10:02 15,8 C 19,4 C 22,6 C 15,3 C 32,7 C 25,5 C 70 % 62 % 46 % 0 % 1004,9 hPa 0,0 l/m 2,7 km/h (1 Bft) NO 45 11,9 C 19,4 C 6,5 km/h (2 Bft)
19.05.2019 10:00 15,8 C 19,1 C 22,4 C 15,3 C 31,5 C 25,2 C 70 % 63 % 47 % 0 % 1004,9 hPa 0,0 l/m 3,1 km/h (1 Bft) SW 225 11,9 C 19,1 C 5,8 km/h (2 Bft)
19.05.2019 09:58 15,8 C 18,7 C 21,3 C 15,3 C 30,9 C 24,7 C 70 % 62 % 48 % 99 % 1004,9 hPa 0,0 l/m 2,9 km/h (1 Bft) NO 45 11,3 C 18,7 C 6,3 km/h (2 Bft)
19.05.2019 09:56 15,8 C 18,5 C 20,9 C 15,3 C 29,3 C 24,3 C 70 % 63 % 49 % 99 % 1004,9 hPa 0,0 l/m 3,9 km/h (1 Bft) N-NO 22 11,3 C 18,5 C 3,1 km/h (1 Bft)
19.05.2019 09:54 15,8 C 18,2 C 20,6 C 15,3 C 28,7 C 24,2 C 70 % 64 % 48 % 99 % 1004,9 hPa 0,0 l/m 4,3 km/h (1 Bft) O 90 11,3 C 18,2 C 7,5 km/h (2 Bft)
19.05.2019 09:52 15,8 C 17,8 C 19,6 C 15,3 C 27,5 C 24,0 C 70 % 64 % 48 % 99 % 1004,9 hPa 0,0 l/m 4,8 km/h (1 Bft) O-NO 67 10,9 C 17,8 C 5,1 km/h (1 Bft)
19.05.2019 09:50 15,8 C 17,7 C 19,6 C 15,3 C 27,4 C 24,0 C 70 % 65 % 48 % 99 % 1005,1 hPa 0,0 l/m 5,3 km/h (1 Bft) NO 45 11,0 C 17,7 C 11,3 km/h (2 Bft)
19.05.2019 09:48 15,8 C 17,7 C 19,2 C 15,3 C 27,2 C 24,0 C 70 % 65 % 47 % 99 % 1005,1 hPa 0,0 l/m 5,1 km/h (1 Bft) NO 45 11,0 C 17,7 C 5,1 km/h (1 Bft)
19.05.2019 09:46 15,8 C 17,7 C 18,9 C 15,3 C 27,3 C 24,2 C 70 % 64 % 45 % 99 % 1005,1 hPa 0,0 l/m 5,3 km/h (1 Bft) NO 45 10,8 C 17,7 C 12,1 km/h (2 Bft)
19.05.2019 09:44 15,8 C 17,7 C 18,8 C 15,3 C 27,4 C 24,3 C 70 % 64 % 48 % 99 % 1005,1 hPa 0,0 l/m 4,8 km/h (1 Bft) NO 45 10,8 C 17,7 C 10,4 km/h (2 Bft)
19.05.2019 09:42 15,8 C 17,8 C 18,8 C 15,3 C 27,6 C 24,4 C 70 % 64 % 47 % 99 % 1005,1 hPa 0,0 l/m 4,3 km/h (1 Bft) N-NO 22 10,9 C 17,8 C 16,7 km/h (3 Bft)
19.05.2019 09:40 15,8 C 17,9 C 18,9 C 15,3 C 27,9 C 24,5 C 70 % 64 % 46 % 99 % 1005,1 hPa 0,0 l/m 4,0 km/h (1 Bft) N-NO 22 11,0 C 17,9 C 16,7 km/h (3 Bft)
19.05.2019 09:38 15,8 C 17,9 C 18,8 C 15,3 C 27,8 C 24,6 C 70 % 64 % 47 % 99 % 1005,1 hPa 0,0 l/m 3,9 km/h (1 Bft) NO 45 11,0 C 17,9 C 5,1 km/h (1 Bft)
19.05.2019 09:36 15,8 C 17,9 C 19,3 C 15,3 C 28,0 C 24,7 C 70 % 64 % 46 % 99 % 1005,1 hPa 0,0 l/m 3,5 km/h (1 Bft) N-NO 22 11,0 C 17,9 C 7,7 km/h (2 Bft)
19.05.2019 09:34 15,8 C 17,9 C 19,6 C 15,3 C 28,4 C 24,8 C 70 % 65 % 46 % 99 % 1005,1 hPa 0,0 l/m 3,2 km/h (1 Bft) N-NO 22 11,2 C 17,9 C 7,2 km/h (2 Bft)
19.05.2019 09:32 15,8 C 17,9 C 19,4 C 15,3 C 28,4 C 24,9 C 70 % 64 % 46 % 99 % 1005,1 hPa 0,0 l/m 3,2 km/h (1 Bft) NO 45 11,0 C 17,9 C 7,7 km/h (2 Bft)
19.05.2019 09:30 15,8 C 17,8 C 19,1 C 15,3 C 28,1 C 24,9 C 70 % 65 % 48 % 99 % 1005,2 hPa 0,0 l/m 2,6 km/h (1 Bft) NO 45 11,1 C 17,8 C 11,3 km/h (2 Bft)
19.05.2019 09:28 15,8 C 17,7 C 18,5 C 15,3 C 27,8 C 24,9 C 70 % 64 % 47 % 99 % 1005,2 hPa 0,0 l/m 2,1 km/h (1 Bft) N-NO 22 10,8 C 17,7 C 4,6 km/h (1 Bft)
19.05.2019 09:26 15,8 C 17,6 C 18,1 C 15,3 C 27,4 C 24,9 C 70 % 64 % 47 % 99 % 1005,2 hPa 0,0 l/m 1,9 km/h (1 Bft) NO 45 10,7 C 17,6 C 3,6 km/h (1 Bft)
19.05.2019 09:24 15,8 C 17,6 C 18,0 C 15,3 C 27,7 C 25,1 C 70 % 65 % 47 % 0 % 1005,2 hPa 0,0 l/m 2,1 km/h (1 Bft) SO 135 10,9 C 17,6 C 0,0 km/h (0 Bft)
19.05.2019 09:22 15,8 C 17,6 C 18,2 C 15,3 C 28,2 C 25,1 C 70 % 65 % 46 % 0 % 1005,2 hPa 0,0 l/m 1,6 km/h (1 Bft) NO 45 10,9 C 17,6 C 3,4 km/h (1 Bft)
19.05.2019 09:20 15,6 C 17,7 C 17,9 C 15,3 C 28,4 C 25,6 C 70 % 63 % 46 % 0 % 1005,2 hPa 0,0 l/m 1,6 km/h (1 Bft) O-NO 67 10,6 C 17,7 C 2,4 km/h (1 Bft)
19.05.2019 09:18 15,6 C 17,8 C 18,1 C 15,2 C 28,8 C 25,6 C 70 % 63 % 46 % 0 % 1005,2 hPa 0,0 l/m 2,1 km/h (1 Bft) N-NO 22 10,7 C 17,8 C 5,3 km/h (1 Bft)
19.05.2019 09:16 15,6 C 18,0 C 20,0 C 15,2 C 29,8 C 25,9 C 70 % 63 % 47 % 0 % 1005,2 hPa 0,0 l/m 1,8 km/h (1 Bft) O-NO 67 10,8 C 18,0 C 2,4 km/h (1 Bft)
19.05.2019 09:14 15,6 C 18,1 C 20,0 C 15,2 C 30,1 C 25,9 C 70 % 63 % 48 % 0 % 1005,2 hPa 0,0 l/m 1,6 km/h (1 Bft) SO 135 10,9 C 18,1 C 3,4 km/h (1 Bft)
19.05.2019 09:12 15,6 C 18,0 C 19,4 C 15,2 C 29,4 C 25,7 C 70 % 63 % 48 % 0 % 1005,2 hPa 0,0 l/m 2,4 km/h (1 Bft) NO 45 10,8 C 18,0 C 0,0 km/h (0 Bft)
19.05.2019 09:10 15,6 C 18,0 C 19,4 C 15,2 C 29,2 C 25,4 C 70 % 64 % 49 % 0 % 1005,1 hPa 0,0 l/m 3,1 km/h (1 Bft) N-NO 22 11,1 C 18,0 C 2,4 km/h (1 Bft)
19.05.2019 09:08 15,6 C 18,0 C 19,0 C 15,3 C 28,8 C 25,3 C 70 % 64 % 50 % 0 % 1005,1 hPa 0,0 l/m 3,2 km/h (1 Bft) N-NO 22 11,1 C 18,0 C 6,5 km/h (2 Bft)
19.05.2019 09:06 15,6 C 17,8 C 19,1 C 15,3 C 28,3 C 25,1 C 70 % 65 % 50 % 0 % 1005,1 hPa 0,0 l/m 3,7 km/h (1 Bft) N-NO 22 11,1 C 17,8 C 3,1 km/h (1 Bft)
19.05.2019 09:04 15,6 C 17,7 C 18,6 C 15,4 C 28,0 C 24,9 C 70 % 65 % 51 % 99 % 1005,1 hPa 0,0 l/m 4,7 km/h (1 Bft) N-NO 22 11,0 C 17,7 C 4,1 km/h (1 Bft)
19.05.2019 09:02 15,6 C 17,6 C 17,7 C 15,4 C 27,5 C 24,7 C 70 % 63 % 53 % 99 % 1005,1 hPa 0,0 l/m 5,1 km/h (1 Bft) NO 45 10,5 C 17,6 C 9,4 km/h (2 Bft)
19.05.2019 09:00 15,6 C 17,6 C 17,7 C 15,4 C 27,1 C 24,3 C 70 % 64 % 53 % 99 % 1005,1 hPa 0,0 l/m 5,6 km/h (1 Bft) N-NW 337 10,7 C 17,6 C 7,2 km/h (2 Bft)
19.05.2019 08:58 15,6 C 17,5 C 17,9 C 15,4 C 26,7 C 24,0 C 70 % 64 % 55 % 99 % 1005,1 hPa 0,0 l/m 5,1 km/h (1 Bft) N-NO 22 10,6 C 17,5 C 7,5 km/h (2 Bft)
19.05.2019 08:56 15,6 C 17,4 C 17,6 C 15,4 C 26,4 C 24,0 C 70 % 65 % 56 % 99 % 1005,1 hPa 0,0 l/m 4,8 km/h (1 Bft) N-NO 22 10,8 C 17,4 C 8,7 km/h (2 Bft)
19.05.2019 08:54 15,6 C 17,2 C 17,0 C 15,4 C 25,9 C 23,7 C 70 % 66 % 58 % 99 % 1005,1 hPa 0,0 l/m 3,9 km/h (1 Bft) N-NO 22 10,8 C 17,2 C 15,0 km/h (3 Bft)
19.05.2019 08:52 15,6 C 17,2 C 16,8 C 15,4 C 25,6 C 23,7 C 70 % 66 % 59 % 99 % 1005,1 hPa 0,0 l/m 2,7 km/h (1 Bft) N 360 10,8 C 17,2 C 11,3 km/h (2 Bft)
19.05.2019 08:50 15,6 C 17,1 C 16,6 C 15,4 C 25,4 C 23,5 C 70 % 67 % 60 % 99 % 1005,3 hPa 0,0 l/m 1,3 km/h (1 Bft) NO 45 10,9 C 17,1 C 8,2 km/h (2 Bft)
19.05.2019 08:48 15,6 C 16,9 C 16,3 C 15,5 C 24,8 C 23,3 C 70 % 68 % 62 % 99 % 1005,3 hPa 0,0 l/m 0,3 km/h (0 Bft) NO 45 11,0 C 16,9 C 0,0 km/h (0 Bft)
19.05.2019 08:46 15,6 C 16,7 C 15,6 C 15,5 C 24,4 C 23,3 C 70 % 69 % 63 % 99 % 1005,3 hPa 0,0 l/m 0,3 km/h (0 Bft) NO 45 11,0 C 16,7 C 2,7 km/h (1 Bft)
19.05.2019 08:44 15,6 C 16,5 C 15,6 C 15,5 C 24,0 C 22,9 C 70 % 70 % 64 % 99 % 1005,3 hPa 0,0 l/m 0,0 km/h (0 Bft) NO 45 11,0 C 16,5 C 2,4 km/h (1 Bft)
19.05.2019 08:42 15,6 C 16,4 C 15,5 C 15,5 C 23,5 C 22,7 C 70 % 70 % 65 % 99 % 1005,3 hPa 0,0 l/m 0,0 km/h (0 Bft) O-NO 67 10,9 C 16,4 C 0,0 km/h (0 Bft)
19.05.2019 08:40 15,6 C 16,1 C 15,5 C 15,5 C 23,1 C 22,5 C 70 % 70 % 66 % 99 % 1005,3 hPa 0,0 l/m 0,2 km/h (0 Bft) S 180 10,6 C 16,1 C 0,0 km/h (0 Bft)
19.05.2019 08:38 15,6 C 15,9 C 15,6 C 15,5 C 22,7 C 22,3 C 70 % 72 % 67 % 99 % 1005,3 hPa 0,0 l/m 0,3 km/h (0 Bft) NO 45 10,9 C 15,9 C 0,0 km/h (0 Bft)
19.05.2019 08:36 15,6 C 15,8 C 15,3 C 15,5 C 22,0 C 22,3 C 70 % 72 % 69 % 99 % 1005,3 hPa 0,0 l/m 0,5 km/h (0 Bft) N-NO 22 10,8 C 15,8 C 0,0 km/h (0 Bft)
19.05.2019 08:34 15,6 C 15,6 C 15,1 C 15,5 C 21,9 C 22,1 C 70 % 72 % 69 % 99 % 1005,3 hPa 0,0 l/m 0,5 km/h (0 Bft) N-NO 22 10,6 C 15,6 C 0,0 km/h (0 Bft)
19.05.2019 08:32 15,6 C 15,4 C 15,2 C 15,5 C 21,5 C 21,8 C 70 % 73 % 71 % 99 % 1005,3 hPa 0,0 l/m 0,6 km/h (0 Bft) W-SW 247 10,6 C 15,4 C 0,0 km/h (0 Bft)
19.05.2019 08:30 15,6 C 15,3 C 15,3 C 15,5 C 21,3 C 21,8 C 70 % 72 % 72 % 99 % 1005,1 hPa 0,0 l/m 0,8 km/h (0 Bft) NW 315 10,3 C 15,3 C 4,1 km/h (1 Bft)
19.05.2019 08:28 15,6 C 15,1 C 15,3 C 15,5 C 21,1 C 21,6 C 70 % 71 % 74 % 99 % 1005,1 hPa 0,0 l/m 0,5 km/h (0 Bft) S-SO 157 9,9 C 15,1 C 0,0 km/h (0 Bft)
19.05.2019 08:26 15,6 C 15,0 C 15,1 C 15,5 C 20,8 C 21,5 C 70 % 71 % 75 % 99 % 1005,1 hPa 0,0 l/m 0,6 km/h (0 Bft) NW 315 9,8 C 15,0 C 2,4 km/h (1 Bft)
19.05.2019 08:24 15,4 C 14,9 C 15,0 C 15,5 C 20,7 C 21,4 C 70 % 71 % 75 % 99 % 1005,1 hPa 0,0 l/m 0,5 km/h (0 Bft) O-NO 67 9,7 C 14,9 C 0,0 km/h (0 Bft)
19.05.2019 08:22 15,6 C 14,9 C 14,9 C 15,5 C 20,7 C 21,4 C 70 % 71 % 77 % 99 % 1005,1 hPa 0,0 l/m 0,5 km/h (0 Bft) N-NW 337 9,7 C 14,9 C 0,0 km/h (0 Bft)
19.05.2019 08:20 15,6 C 14,9 C 15,2 C 15,5 C 20,8 C 21,5 C 70 % 71 % 78 % 99 % 1005,1 hPa 0,0 l/m 0,8 km/h (0 Bft) O-NO 67 9,7 C 14,9 C 0,0 km/h (0 Bft)
19.05.2019 08:18 15,6 C 14,9 C 15,2 C 15,5 C 20,9 C 21,5 C 70 % 71 % 79 % 99 % 1005,1 hPa 0,0 l/m 1,6 km/h (1 Bft) O 90 9,7 C 14,9 C 0,0 km/h (0 Bft)
19.05.2019 08:16 15,6 C 14,9 C 15,4 C 15,5 C 20,8 C 21,6 C 70 % 72 % 80 % 99 % 1005,1 hPa 0,0 l/m 2,1 km/h (1 Bft) S-SO 157 9,9 C 14,9 C 0,0 km/h (0 Bft)
19.05.2019 08:14 15,6 C 14,9 C 15,5 C 15,5 C 20,7 C 20,1 C 70 % 71 % 81 % 99 % 1005,1 hPa 0,0 l/m 2,3 km/h (1 Bft) O-SO 112 9,7 C 14,9 C 2,7 km/h (1 Bft)
19.05.2019 08:12 15,6 C 14,9 C 15,6 C 15,5 C 20,5 C 20,1 C 70 % 72 % 81 % 99 % 1005,1 hPa 0,0 l/m 2,1 km/h (1 Bft) N-NO 22 9,9 C 14,9 C 0,0 km/h (0 Bft)
19.05.2019 08:10 15,6 C 14,8 C 15,6 C 15,5 C 20,3 C 20,1 C 70 % 73 % 82 % 99 % 1004,9 hPa 0,0 l/m 2,6 km/h (1 Bft) O-NO 67 10,0 C 14,8 C 5,1 km/h (1 Bft)
19.05.2019 08:08 15,6 C 14,7 C 15,5 C 15,5 C 19,8 C 20,1 C 70 % 72 % 82 % 99 % 1004,9 hPa 0,0 l/m 2,1 km/h (1 Bft) N-NO 22 9,7 C 14,7 C 6,0 km/h (2 Bft)
19.05.2019 08:06 15,4 C 14,6 C 15,4 C 15,5 C 19,5 C 20,1 C 70 % 73 % 82 % 99 % 1004,9 hPa 0,0 l/m 1,8 km/h (1 Bft) N-NO 22 9,8 C 14,6 C 9,4 km/h (2 Bft)
19.05.2019 08:04 15,6 C 14,4 C 15,3 C 15,5 C 19,2 C 20,0 C 70 % 72 % 83 % 99 % 1004,9 hPa 0,0 l/m 1,3 km/h (1 Bft) NO 45 9,4 C 14,4 C 4,3 km/h (1 Bft)
19.05.2019 08:02 15,6 C 14,3 C 15,1 C 15,5 C 19,0 C 19,2 C 70 % 72 % 83 % 99 % 1004,9 hPa 0,0 l/m 1,3 km/h (1 Bft) O-SO 112 9,3 C 14,3 C 2,7 km/h (1 Bft)
19.05.2019 08:00 15,6 C 14,2 C 15,1 C 15,5 C 18,5 C 19,2 C 70 % 73 % 84 % 99 % 1004,9 hPa 0,0 l/m 0,8 km/h (0 Bft) NO 45 9,4 C 14,2 C 3,6 km/h (1 Bft)
19.05.2019 07:58 15,4 C 14,1 C 14,5 C 15,5 C 18,1 C 18,5 C 70 % 73 % 83 % 99 % 1004,9 hPa 0,0 l/m 0,8 km/h (0 Bft) NO 45 9,3 C 14,1 C 8,9 km/h (2 Bft)
19.05.2019 07:56 15,4 C 13,9 C 14,3 C 15,5 C 17,7 C 18,3 C 70 % 73 % 84 % 99 % 1004,9 hPa 0,0 l/m 0,2 km/h (0 Bft) NO 45 9,1 C 13,9 C 0,0 km/h (0 Bft)
19.05.2019 07:54 15,4 C 13,8 C 14,2 C 15,4 C 17,5 C 18,0 C 70 % 74 % 84 % 99 % 1004,9 hPa 0,0 l/m 0,2 km/h (0 Bft) NO 45 9,2 C 13,8 C 2,9 km/h (1 Bft)
19.05.2019 07:52 15,4 C 13,7 C 14,0 C 15,5 C 16,9 C 17,5 C 70 % 74 % 84 % 99 % 1004,9 hPa 0,0 l/m 0,2 km/h (0 Bft) SO 135 9,2 C 13,7 C 2,9 km/h (1 Bft)
19.05.2019 07:50 15,4 C 13,6 C 13,6 C 15,4 C 16,6 C 17,2 C 70 % 75 % 85 % 99 % 1005,1 hPa 0,0 l/m 0,0 km/h (0 Bft) O-SO 112 9,3 C 13,6 C 0,0 km/h (0 Bft)
19.05.2019 07:48 15,4 C 13,4 C 13,4 C 15,4 C 16,5 C 16,7 C 70 % 75 % 85 % 99 % 1005,1 hPa 0,0 l/m 0,3 km/h (0 Bft) W-NW 292 9,1 C 13,4 C 0,0 km/h (0 Bft)
19.05.2019 07:46 15,5 C 13,4 C 13,3 C 15,4 C 16,1 C 16,4 C 70 % 76 % 85 % 99 % 1005,1 hPa 0,0 l/m 0,3 km/h (0 Bft) S-SW 202 9,3 C 13,4 C 3,4 km/h (1 Bft)
19.05.2019 07:44 15,5 C 13,2 C 13,0 C 15,4 C 15,8 C 16,3 C 70 % 77 % 85 % 99 % 1005,1 hPa 0,0 l/m 0,5 km/h (0 Bft) NO 45 9,3 C 13,2 C 0,0 km/h (0 Bft)
19.05.2019 07:42 15,4 C 13,0 C 12,8 C 15,4 C 15,3 C 16,0 C 70 % 79 % 84 % 99 % 1005,1 hPa 0,0 l/m 0,8 km/h (0 Bft) SO 135 9,4 C 13,0 C 0,0 km/h (0 Bft)
19.05.2019 07:40 15,5 C 12,9 C 12,7 C 15,4 C 15,0 C 15,7 C 70 % 80 % 84 % 99 % 1005,1 hPa 0,0 l/m 1,0 km/h (0 Bft) NO 45 9,5 C 12,9 C 0,0 km/h (0 Bft)
19.05.2019 07:38 15,5 C 12,6 C 12,3 C 15,5 C 14,7 C 15,5 C 70 % 81 % 84 % 99 % 1005,1 hPa 0,0 l/m 0,8 km/h (0 Bft) NO 45 9,4 C 12,6 C 3,9 km/h (1 Bft)
19.05.2019 07:36 15,5 C 12,3 C 12,1 C 15,5 C 14,5 C 15,3 C 70 % 82 % 84 % 99 % 1005,1 hPa 0,0 l/m 0,6 km/h (0 Bft) O 90 9,3 C 12,3 C 2,9 km/h (1 Bft)
19.05.2019 07:34 15,5 C 12,1 C 11,9 C 15,5 C 14,2 C 15,1 C 70 % 82 % 84 % 99 % 1005,1 hPa 0,0 l/m 0,6 km/h (0 Bft) O-NO 67 9,1 C 12,1 C 4,8 km/h (1 Bft)
19.05.2019 07:32 15,5 C 12,1 C 11,7 C 15,5 C 14,0 C 15,0 C 70 % 83 % 84 % 99 % 1005,1 hPa 0,0 l/m 0,2 km/h (0 Bft) N-NO 22 9,3 C 12,1 C 5,8 km/h (2 Bft)
19.05.2019 07:30 15,5 C 11,9 C 11,6 C 15,5 C 14,0 C 15,0 C 70 % 83 % 84 % 99 % 1005,2 hPa 0,0 l/m 0,0 km/h (0 Bft) NO 45 9,1 C 11,9 C 0,0 km/h (0 Bft)
19.05.2019 07:28 15,5 C 11,9 C 11,5 C 15,5 C 13,9 C 14,9 C 70 % 83 % 84 % 99 % 1005,2 hPa 0,0 l/m 0,0 km/h (0 Bft) NO 45 9,1 C 11,9 C 0,0 km/h (0 Bft)
19.05.2019 07:26 15,5 C 11,9 C 11,4 C 15,5 C 13,8 C 14,9 C 70 % 83 % 84 % 99 % 1005,2 hPa 0,0 l/m 0,0 km/h (0 Bft) S-SO 157 9,1 C 11,9 C 0,0 km/h (0 Bft)
19.05.2019 07:24 15,5 C 11,7 C 11,4 C 15,5 C 13,7 C 14,8 C 70 % 83 % 84 % 99 % 1005,2 hPa 0,0 l/m 0,0 km/h (0 Bft) N-NO 22 8,9 C 11,7 C 0,0 km/h (0 Bft)
19.05.2019 07:22 15,5 C 11,7 C 11,4 C 15,5 C 13,6 C 14,8 C 70 % 83 % 84 % 99 % 1005,2 hPa 0,0 l/m 0,2 km/h (0 Bft) NW 315 8,9 C 11,7 C 0,0 km/h (0 Bft)
19.05.2019 07:20 15,5 C 11,6 C 11,4 C 15,6 C 13,6 C 14,7 C 70 % 83 % 84 % 99 % 1005,2 hPa 0,0 l/m 0,2 km/h (0 Bft) W-NW 292 8,8 C 11,6 C 0,0 km/h (0 Bft)
19.05.2019 07:18 15,5 C 11,5 C 11,4 C 15,6 C 13,4 C 14,7 C 70 % 83 % 84 % 99 % 1005,2 hPa 0,0 l/m 0,2 km/h (0 Bft) N-NO 22 8,7 C 11,5 C 0,0 km/h (0 Bft)
19.05.2019 07:16 15,5 C 11,4 C 11,2 C 15,6 C 13,3 C 14,5 C 70 % 83 % 84 % 99 % 1005,2 hPa 0,0 l/m 0,2 km/h (0 Bft) NO 45 8,6 C 11,4 C 0,0 km/h (0 Bft)
19.05.2019 07:14 15,5 C 11,4 C 11,2 C 15,6 C 13,3 C 14,5 C 70 % 83 % 84 % 99 % 1005,2 hPa 0,0 l/m 0,2 km/h (0 Bft) W-SW 247 8,6 C 11,4 C 0,0 km/h (0 Bft)
19.05.2019 07:12 15,5 C 11,3 C 11,2 C 15,6 C 13,2 C 14,4 C 70 % 83 % 85 % 99 % 1005,2 hPa 0,0 l/m 0,0 km/h (0 Bft) S 180 8,5 C 11,3 C 0,0 km/h (0 Bft)
19.05.2019 07:10 15,5 C 11,2 C 11,2 C 15,6 C 13,1 C 14,4 C 70 % 83 % 85 % 99 % 1005,2 hPa 0,0 l/m 0,0 km/h (0 Bft) N-NO 22 8,4 C 11,2 C 0,0 km/h (0 Bft)
19.05.2019 07:08 15,5 C 11,2 C 11,0 C 15,6 C 13,1 C 14,3 C 70 % 83 % 85 % 99 % 1005,2 hPa 0,0 l/m 0,3 km/h (0 Bft) N-NW 337 8,4 C 11,2 C 0,0 km/h (0 Bft)
19.05.2019 07:06 15,5 C 11,1 C 10,9 C 15,6 C 12,9 C 14,3 C 70 % 83 % 85 % 99 % 1005,2 hPa 0,0 l/m 0,5 km/h (0 Bft) O-SO 112 8,3 C 11,1 C 0,0 km/h (0 Bft)
19.05.2019 07:04 15,5 C 11,1 C 10,8 C 15,6 C 12,8 C 14,3 C 70 % 83 % 85 % 99 % 1005,2 hPa 0,0 l/m 0,5 km/h (0 Bft) S-SO 157 8,3 C 11,1 C 0,0 km/h (0 Bft)
19.05.2019 07:02 15,5 C 11,1 C 10,8 C 15,6 C 12,8 C 14,3 C 70 % 83 % 85 % 99 % 1005,2 hPa 0,0 l/m 0,5 km/h (0 Bft) O-SO 112 8,3 C 11,1 C 0,0 km/h (0 Bft)
19.05.2019 07:00 15,5 C 11,0 C 10,9 C 15,6 C 12,7 C 14,2 C 70 % 83 % 85 % 99 % 1005,2 hPa 0,0 l/m 0,5 km/h (0 Bft) O 90 8,2 C 11,0 C 0,0 km/h (0 Bft)
19.05.2019 06:58 15,5 C 11,0 C 10,8 C 15,6 C 12,5 C 14,1 C 70 % 83 % 85 % 99 % 1005,2 hPa 0,0 l/m 0,3 km/h (0 Bft) W-SW 247 8,2 C 11,0 C 2,9 km/h (1 Bft)
19.05.2019 06:56 15,5 C 10,9 C 10,8 C 15,6 C 12,5 C 14,1 C 70 % 84 % 85 % 99 % 1005,2 hPa 0,0 l/m 0,2 km/h (0 Bft) W 270 8,3 C 10,9 C 2,4 km/h (1 Bft)
19.05.2019 06:54 15,5 C 10,8 C 10,8 C 15,6 C 12,4 C 14,0 C 70 % 84 % 85 % 99 % 1005,2 hPa 0,0 l/m 0,2 km/h (0 Bft) O-SO 112 8,2 C 10,8 C 0,0 km/h (0 Bft)
19.05.2019 06:52 15,5 C 10,7 C 10,8 C 15,6 C 12,4 C 14,0 C 70 % 84 % 85 % 99 % 1005,2 hPa 0,0 l/m 0,2 km/h (0 Bft) SW 225 8,1 C 10,7 C 2,7 km/h (1 Bft)
19.05.2019 06:50 15,5 C 10,6 C 10,8 C 15,6 C 12,3 C 13,9 C 70 % 83 % 85 % 99 % 1004,9 hPa 0,0 l/m 0,2 km/h (0 Bft) SW 225 7,8 C 10,6 C 2,4 km/h (1 Bft)
19.05.2019 06:48 15,5 C 10,5 C 10,8 C 15,6 C 12,1 C 13,9 C 70 % 83 % 85 % 99 % 1004,9 hPa 0,0 l/m 0,2 km/h (0 Bft) S-SW 202 7,7 C 10,5 C 0,0 km/h (0 Bft)
19.05.2019 06:46 15,5 C 10,4 C 10,7 C 15,6 C 12,0 C 13,8 C 70 % 83 % 85 % 99 % 1004,9 hPa 0,0 l/m 0,3 km/h (0 Bft) W-SW 247 7,6 C 10,4 C 0,0 km/h (0 Bft)
19.05.2019 06:44 15,5 C 10,4 C 10,5 C 15,6 C 11,9 C 13,8 C 70 % 83 % 85 % 99 % 1004,9 hPa 0,0 l/m 0,3 km/h (0 Bft) S 180 7,6 C 10,4 C 0,0 km/h (0 Bft)
19.05.2019 06:42 15,5 C 10,3 C 10,5 C 15,6 C 11,9 C 13,7 C 70 % 83 % 85 % 99 % 1004,9 hPa 0,0 l/m 0,3 km/h (0 Bft) NO 45 7,5 C 10,3 C 0,0 km/h (0 Bft)
19.05.2019 06:40 15,5 C 10,2 C 10,3 C 15,6 C 11,6 C 13,7 C 70 % 83 % 85 % 99 % 1004,9 hPa 0,0 l/m 0,3 km/h (0 Bft) N-NW 337 7,4 C 10,2 C 3,9 km/h (1 Bft)
19.05.2019 06:38 15,5 C 10,1 C 10,1 C 15,6 C 11,6 C 13,7 C 70 % 83 % 85 % 99 % 1004,9 hPa 0,0 l/m 0,2 km/h (0 Bft) W-SW 247 7,3 C 10,1 C 4,3 km/h (1 Bft)
19.05.2019 06:36 15,5 C 10,0 C 9,9 C 15,6 C 11,5 C 13,5 C 70 % 83 % 85 % 99 % 1004,9 hPa 0,0 l/m 0,0 km/h (0 Bft) NW 315 7,2 C 10,0 C 2,4 km/h (1 Bft)
19.05.2019 06:34 15,5 C 9,9 C 9,6 C 15,6 C 11,4 C 13,5 C 70 % 83 % 85 % 99 % 1004,9 hPa 0,0 l/m 0,0 km/h (0 Bft) SO 135 7,2 C 9,9 C 0,0 km/h (0 Bft)
19.05.2019 06:32 15,5 C 9,9 C 9,5 C 15,6 C 11,4 C 13,5 C 70 % 83 % 85 % 99 % 1004,9 hPa 0,0 l/m 0,0 km/h (0 Bft) N-NO 22 7,2 C 9,9 C 0,0 km/h (0 Bft)
19.05.2019 06:30 15,5 C 9,9 C 9,4 C 15,6 C 11,3 C 13,5 C 70 % 83 % 85 % 99 % 1005,2 hPa 0,0 l/m 0,0 km/h (0 Bft) W 270 7,2 C 9,9 C 0,0 km/h (0 Bft)
19.05.2019 06:28 15,5 C 9,8 C 9,3 C 15,6 C 11,3 C 13,5 C 70 % 83 % 85 % 99 % 1005,2 hPa 0,0 l/m 0,2 km/h (0 Bft) W-SW 247 7,1 C 9,8 C 0,0 km/h (0 Bft)
19.05.2019 06:26 15,5 C 9,8 C 9,3 C 15,6 C 11,3 C 13,5 C 70 % 83 % 85 % 99 % 1005,2 hPa 0,0 l/m 0,3 km/h (0 Bft) N-NW 337 7,1 C 9,8 C 0,0 km/h (0 Bft)
19.05.2019 06:24 15,5 C 9,8 C 9,3 C 15,6 C 11,2 C 13,5 C 70 % 83 % 85 % 99 % 1005,2 hPa 0,0 l/m 0,3 km/h (0 Bft) W-SW 247 7,1 C 9,8 C 0,0 km/h (0 Bft)
19.05.2019 06:22 15,5 C 9,8 C 9,1 C 15,6 C 11,2 C 13,5 C 70 % 82 % 85 % 99 % 1005,2 hPa 0,0 l/m 0,3 km/h (0 Bft) W-NW 292 6,9 C 9,8 C 0,0 km/h (0 Bft)
19.05.2019 06:20 15,5 C 9,8 C 8,9 C 15,6 C 11,2 C 13,5 C 70 % 82 % 85 % 99 % 1005,2 hPa 0,0 l/m 0,3 km/h (0 Bft) N-NO 22 6,9 C 9,8 C 0,0 km/h (0 Bft)
19.05.2019 06:18 15,5 C 9,8 C 9,0 C 15,6 C 11,2 C 13,4 C 70 % 82 % 85 % 99 % 1005,2 hPa 0,0 l/m 0,3 km/h (0 Bft) W-SW 247 6,9 C 9,8 C 4,8 km/h (1 Bft)
19.05.2019 06:16 15,5 C 9,8 C 9,1 C 15,7 C 11,2 C 13,3 C 70 % 82 % 86 % 99 % 1005,2 hPa 0,0 l/m 0,2 km/h (0 Bft) SW 225 6,9 C 9,8 C 0,0 km/h (0 Bft)
19.05.2019 06:14 15,5 C 9,8 C 9,2 C 15,7 C 11,1 C 13,3 C 70 % 82 % 86 % 99 % 1005,2 hPa 0,0 l/m 0,0 km/h (0 Bft) W-SW 247 6,9 C 9,8 C 3,1 km/h (1 Bft)
19.05.2019 06:12 15,5 C 9,8 C 9,4 C 15,7 C 11,2 C 13,3 C 70 % 82 % 86 % 99 % 1005,2 hPa 0,0 l/m 0,0 km/h (0 Bft) SO 135 6,9 C 9,8 C 0,0 km/h (0 Bft)
19.05.2019 06:10 15,5 C 9,8 C 9,4 C 15,7 C 11,1 C 13,0 C 70 % 82 % 86 % 99 % 1005,2 hPa 0,0 l/m 0,0 km/h (0 Bft) SO 135 6,9 C 9,8 C 0,0 km/h (0 Bft)
19.05.2019 06:08 15,5 C 9,8 C 9,4 C 15,7 C 11,1 C 13,0 C 69 % 82 % 86 % 99 % 1005,2 hPa 0,0 l/m 0,0 km/h (0 Bft) W-SW 247 6,9 C 9,8 C 0,0 km/h (0 Bft)
19.05.2019 06:06 15,5 C 9,8 C 9,5 C 15,7 C 11,1 C 13,0 C 69 % 82 % 86 % 99 % 1005,2 hPa 0,0 l/m 0,2 km/h (0 Bft) NW 315 6,9 C 9,8 C 0,0 km/h (0 Bft)
19.05.2019 06:04 15,5 C 9,8 C 9,4 C 15,7 C 11,1 C 13,1 C 69 % 82 % 86 % 99 % 1005,2 hPa 0,0 l/m 0,2 km/h (0 Bft) NW 315 6,9 C 9,8 C 0,0 km/h (0 Bft)
19.05.2019 06:02 15,5 C 9,8 C 9,4 C 15,7 C 11,0 C 13,0 C 69 % 82 % 86 % 99 % 1005,2 hPa 0,0 l/m 0,2 km/h (0 Bft) NO 45 6,9 C 9,8 C 0,0 km/h (0 Bft)
19.05.2019 06:00 15,4 C 9,8 C 9,4 C 15,7 C 11,0 C 13,0 C 69 % 82 % 86 % 99 % 1005,2 hPa 0,0 l/m 0,2 km/h (0 Bft) W-SW 247 6,9 C 9,8 C 0,0 km/h (0 Bft)
19.05.2019 05:58 15,4 C 9,9 C 9,4 C 15,7 C 11,1 C 13,0 C 70 % 82 % 86 % 99 % 1005,2 hPa 0,0 l/m 0,2 km/h (0 Bft) W-SW 247 7,0 C 9,9 C 0,0 km/h (0 Bft)
19.05.2019 05:56 15,4 C 9,9 C 9,5 C 15,7 C 11,0 C 13,0 C 69 % 81 % 86 % 99 % 1005,2 hPa 0,0 l/m 0,2 km/h (0 Bft) SW 225 6,8 C 9,9 C 0,0 km/h (0 Bft)
19.05.2019 05:54 15,4 C 9,9 C 9,5 C 15,7 C 11,0 C 13,0 C 69 % 81 % 86 % 99 % 1005,2 hPa 0,0 l/m 0,2 km/h (0 Bft) W-SW 247 6,8 C 9,9 C 0,0 km/h (0 Bft)
19.05.2019 05:52 15,4 C 9,9 C 9,6 C 15,7 C 11,0 C 13,0 C 69 % 81 % 86 % 99 % 1005,2 hPa 0,0 l/m 0,3 km/h (0 Bft) NO 45 6,8 C 9,9 C 0,0 km/h (0 Bft)
19.05.2019 05:50 15,4 C 9,9 C 9,5 C 15,7 C 11,0 C 13,0 C 69 % 81 % 86 % 99 % 1005,2 hPa 0,0 l/m 0,3 km/h (0 Bft) O-NO 67 6,8 C 9,9 C 0,0 km/h (0 Bft)
19.05.2019 05:48 15,4 C 9,9 C 9,5 C 15,7 C 10,9 C 13,0 C 69 % 81 % 86 % 99 % 1005,2 hPa 0,0 l/m 0,6 km/h (0 Bft) NW 315 6,8 C 9,9 C 0,0 km/h (0 Bft)
19.05.2019 05:46 15,4 C 9,9 C 9,6 C 15,7 C 10,9 C 13,0 C 69 % 81 % 86 % 99 % 1005,2 hPa 0,0 l/m 0,6 km/h (0 Bft) W-SW 247 6,8 C 9,9 C 0,0 km/h (0 Bft)
19.05.2019 05:44 15,4 C 9,9 C 9,6 C 15,8 C 10,9 C 12,7 C 69 % 81 % 86 % 99 % 1005,2 hPa 0,0 l/m 0,6 km/h (0 Bft) N 360 6,8 C 9,9 C 0,0 km/h (0 Bft)
19.05.2019 05:42 15,4 C 9,9 C 9,7 C 15,8 C 10,9 C 12,7 C 69 % 81 % 86 % 99 % 1005,2 hPa 0,0 l/m 0,5 km/h (0 Bft) W-SW 247 6,8 C 9,9 C 0,0 km/h (0 Bft)
19.05.2019 05:40 15,4 C 9,9 C 9,8 C 15,8 C 10,9 C 12,7 C 69 % 81 % 86 % 99 % 1005,2 hPa 0,0 l/m 0,6 km/h (0 Bft) SW 225 6,8 C 9,9 C 0,0 km/h (0 Bft)
19.05.2019 05:38 15,6 C 9,9 C 9,9 C 15,8 C 10,9 C 12,7 C 69 % 81 % 86 % 99 % 1005,2 hPa 0,0 l/m 0,5 km/h (0 Bft) N-NO 22 6,8 C 9,9 C 3,6 km/h (1 Bft)
19.05.2019 05:36 15,6 C 9,9 C 9,9 C 15,8 C 10,9 C 12,7 C 69 % 81 % 86 % 99 % 1005,2 hPa 0,0 l/m 0,2 km/h (0 Bft) O 90 6,8 C 9,9 C 0,0 km/h (0 Bft)
19.05.2019 05:34 15,6 C 9,9 C 9,9 C 15,8 C 10,9 C 12,7 C 69 % 81 % 86 % 99 % 1005,2 hPa 0,0 l/m 0,2 km/h (0 Bft) NO 45 6,8 C 9,9 C 0,0 km/h (0 Bft)
19.05.2019 05:32 15,6 C 9,9 C 9,9 C 15,8 C 10,8 C 12,7 C 69 % 80 % 86 % 99 % 1005,2 hPa 0,0 l/m 0,2 km/h (0 Bft) NO 45 6,6 C 9,9 C 0,0 km/h (0 Bft)
19.05.2019 05:30 15,4 C 9,9 C 9,9 C 15,8 C 10,7 C 12,7 C 69 % 80 % 86 % 99 % 1005,3 hPa 0,0 l/m 0,0 km/h (0 Bft) W-SW 247 6,6 C 9,9 C 3,4 km/h (1 Bft)
19.05.2019 05:28 15,6 C 9,9 C 9,8 C 15,8 C 10,7 C 12,7 C 69 % 80 % 86 % 99 % 1005,3 hPa 0,0 l/m 0,0 km/h (0 Bft) W-SW 247 6,6 C 9,9 C 0,0 km/h (0 Bft)
19.05.2019 05:26 15,6 C 9,9 C 9,7 C 15,8 C 10,7 C 12,7 C 69 % 80 % 86 % 99 % 1005,3 hPa 0,0 l/m 0,0 km/h (0 Bft) SW 225 6,6 C 9,9 C 0,0 km/h (0 Bft)
19.05.2019 05:24 15,6 C 9,9 C 9,7 C 15,8 C 10,7 C 12,7 C 69 % 80 % 86 % 99 % 1005,3 hPa 0,0 l/m 0,0 km/h (0 Bft) N-NW 337 6,6 C 9,9 C 0,0 km/h (0 Bft)
19.05.2019 05:22 15,6 C 9,9 C 9,6 C 15,8 C 10,7 C 12,7 C 69 % 80 % 86 % 99 % 1005,3 hPa 0,0 l/m 0,0 km/h (0 Bft) W 270 6,6 C 9,9 C 0,0 km/h (0 Bft)
19.05.2019 05:20 15,6 C 10,0 C 9,5 C 15,8 C 10,7 C 12,7 C 69 % 79 % 86 % 99 % 1005,3 hPa 0,0 l/m 0,0 km/h (0 Bft) W-SW 247 6,5 C 10,0 C 0,0 km/h (0 Bft)
19.05.2019 05:18 15,6 C 10,0 C 9,5 C 15,8 C 10,7 C 12,7 C 69 % 79 % 86 % 99 % 1005,3 hPa 0,0 l/m 0,2 km/h (0 Bft) SW 225 6,5 C 10,0 C 0,0 km/h (0 Bft)
19.05.2019 05:16 15,6 C 9,9 C 9,5 C 15,8 C 10,6 C 12,7 C 69 % 79 % 86 % 99 % 1005,3 hPa 0,0 l/m 0,2 km/h (0 Bft) S-SW 202 6,4 C 9,9 C 0,0 km/h (0 Bft)
19.05.2019 05:14 15,6 C 9,9 C 9,4 C 15,8 C 10,6 C 12,7 C 69 % 79 % 86 % 99 % 1005,3 hPa 0,0 l/m 0,2 km/h (0 Bft) W-SW 247 6,4 C 9,9 C 0,0 km/h (0 Bft)
19.05.2019 05:12 15,6 C 9,9 C 9,4 C 15,8 C 10,5 C 12,7 C 69 % 79 % 86 % 99 % 1005,3 hPa 0,0 l/m 0,2 km/h (0 Bft) N-NO 22 6,4 C 9,9 C 0,0 km/h (0 Bft)
19.05.2019 05:10 15,6 C 9,9 C 9,3 C 15,8 C 10,5 C 12,7 C 69 % 79 % 86 % 99 % 1005,3 hPa 0,0 l/m 0,2 km/h (0 Bft) W 270 6,4 C 9,9 C 2,9 km/h (1 Bft)
19.05.2019 05:08 15,6 C 10,0 C 9,1 C 15,9 C 10,4 C 12,7 C 69 % 79 % 86 % 99 % 1005,3 hPa 0,0 l/m 0,2 km/h (0 Bft) SW 225 6,5 C 10,0 C 0,0 km/h (0 Bft)
19.05.2019 05:06 15,6 C 10,0 C 9,0 C 15,9 C 10,4 C 12,7 C 69 % 79 % 86 % 99 % 1005,3 hPa 0,0 l/m 0,2 km/h (0 Bft) W 270 6,5 C 10,0 C 0,0 km/h (0 Bft)
19.05.2019 05:04 15,6 C 10,0 C 8,8 C 15,9 C 10,4 C 12,7 C 69 % 78 % 85 % 99 % 1005,3 hPa 0,0 l/m 0,3 km/h (0 Bft) W-NW 292 6,3 C 10,0 C 0,0 km/h (0 Bft)
19.05.2019 05:02 15,6 C 10,0 C 8,7 C 15,9 C 10,3 C 12,7 C 69 % 78 % 85 % 99 % 1005,3 hPa 0,0 l/m 0,2 km/h (0 Bft) S-SW 202 6,3 C 10,0 C 0,0 km/h (0 Bft)
19.05.2019 05:00 15,6 C 10,2 C 8,1 C 15,9 C 10,3 C 12,7 C 69 % 77 % 85 % 99 % 1005,3 hPa 0,0 l/m 0,3 km/h (0 Bft) W 270 6,4 C 10,2 C 3,4 km/h (1 Bft)
19.05.2019 04:58 15,6 C 10,2 C 8,1 C 15,9 C 10,3 C 12,7 C 69 % 77 % 85 % 99 % 1005,3 hPa 0,0 l/m 0,3 km/h (0 Bft) W 270 6,4 C 10,2 C 3,4 km/h (1 Bft)
19.05.2019 04:56 15,6 C 10,2 C 8,1 C 15,9 C 10,3 C 12,7 C 69 % 77 % 85 % 99 % 1005,3 hPa 0,0 l/m 0,3 km/h (0 Bft) W 270 6,4 C 10,2 C 3,4 km/h (1 Bft)
19.05.2019 04:54 15,6 C 10,2 C 8,1 C 15,9 C 10,3 C 12,7 C 69 % 77 % 85 % 99 % 1005,3 hPa 0,0 l/m 0,3 km/h (0 Bft) W 270 6,4 C 10,2 C 3,4 km/h (1 Bft)
19.05.2019 04:52 15,6 C 10,2 C 8,1 C 15,9 C 10,3 C 12,7 C 69 % 77 % 85 % 99 % 1005,3 hPa 0,0 l/m 0,3 km/h (0 Bft) W 270 6,4 C 10,2 C 3,4 km/h (1 Bft)
19.05.2019 04:50 15,6 C 10,2 C 8,1 C 15,9 C 10,3 C 12,7 C 69 % 77 % 85 % 99 % 1005,2 hPa 0,0 l/m 0,3 km/h (0 Bft) W 270 6,4 C 10,2 C 3,4 km/h (1 Bft)
19.05.2019 04:48 15,6 C 10,2 C 7,9 C 15,9 C 10,3 C 12,7 C 69 % 77 % 85 % 99 % 1005,2 hPa 0,0 l/m 0,3 km/h (0 Bft) SW 225 6,4 C 10,2 C 4,6 km/h (1 Bft)
19.05.2019 04:46 15,6 C 10,3 C 8,1 C 15,9 C 10,3 C 12,8 C 69 % 77 % 85 % 99 % 1005,2 hPa 0,0 l/m 0,2 km/h (0 Bft) O-NO 67 6,4 C 10,3 C 0,0 km/h (0 Bft)
19.05.2019 04:44 15,6 C 10,3 C 8,1 C 15,9 C 10,4 C 12,8 C 69 % 77 % 85 % 99 % 1005,2 hPa 0,0 l/m 0,2 km/h (0 Bft) SO 135 6,4 C 10,3 C 0,0 km/h (0 Bft)
19.05.2019 04:42 15,6 C 10,4 C 8,3 C 15,9 C 10,4 C 12,8 C 69 % 77 % 85 % 99 % 1005,2 hPa 0,0 l/m 0,2 km/h (0 Bft) SO 135 6,5 C 10,4 C 0,0 km/h (0 Bft)
19.05.2019 04:40 15,6 C 10,4 C 8,6 C 16,0 C 10,4 C 12,8 C 69 % 77 % 85 % 99 % 1005,2 hPa 0,0 l/m 0,3 km/h (0 Bft) NO 45 6,5 C 10,4 C 0,0 km/h (0 Bft)
19.05.2019 04:38 15,6 C 10,4 C 8,4 C 16,0 C 10,4 C 12,8 C 69 % 77 % 84 % 99 % 1005,2 hPa 0,0 l/m 0,3 km/h (0 Bft) NW 315 6,5 C 10,4 C 6,5 km/h (2 Bft)
19.05.2019 04:36 15,6 C 10,5 C 8,4 C 16,0 C 10,4 C 12,8 C 69 % 77 % 84 % 99 % 1005,2 hPa 0,0 l/m 0,0 km/h (0 Bft) O-SO 112 6,6 C 10,5 C 0,0 km/h (0 Bft)
19.05.2019 04:34 15,6 C 10,5 C 8,4 C 16,0 C 10,4 C 12,9 C 69 % 77 % 84 % 99 % 1005,2 hPa 0,0 l/m 0,0 km/h (0 Bft) N-NW 337 6,6 C 10,5 C 0,0 km/h (0 Bft)
19.05.2019 04:32 15,6 C 10,5 C 8,5 C 16,0 C 10,4 C 12,9 C 69 % 76 % 84 % 99 % 1005,2 hPa 0,0 l/m 0,0 km/h (0 Bft) O-SO 112 6,5 C 10,5 C 0,0 km/h (0 Bft)
19.05.2019 04:30 15,6 C 10,5 C 8,8 C 16,0 C 10,4 C 12,9 C 69 % 76 % 84 % 99 % 1005,0 hPa 0,0 l/m 0,0 km/h (0 Bft) NW 315 6,5 C 10,5 C 0,0 km/h (0 Bft)
19.05.2019 04:28 15,6 C 10,6 C 9,0 C 16,0 C 10,5 C 12,9 C 69 % 76 % 84 % 99 % 1005,0 hPa 0,0 l/m 0,3 km/h (0 Bft) S 180 6,5 C 10,6 C 0,0 km/h (0 Bft)
19.05.2019 04:26 15,6 C 10,6 C 8,5 C 16,0 C 10,5 C 12,9 C 69 % 76 % 84 % 99 % 1005,0 hPa 0,0 l/m 0,6 km/h (0 Bft) NO 45 6,5 C 10,6 C 0,0 km/h (0 Bft)
19.05.2019 04:24 15,6 C 10,6 C 7,8 C 16,0 C 10,5 C 12,9 C 69 % 76 % 84 % 99 % 1005,0 hPa 0,0 l/m 0,8 km/h (0 Bft) O-NO 67 6,5 C 10,6 C 0,0 km/h (0 Bft)
19.05.2019 04:22 15,6 C 10,7 C 7,9 C 16,0 C 10,5 C 13,0 C 69 % 76 % 84 % 99 % 1005,0 hPa 0,0 l/m 0,8 km/h (0 Bft) N-NW 337 6,6 C 10,7 C 0,0 km/h (0 Bft)
19.05.2019 04:20 15,6 C 10,7 C 8,0 C 16,0 C 10,5 C 13,0 C 69 % 76 % 84 % 99 % 1005,0 hPa 0,0 l/m 0,8 km/h (0 Bft) SO 135 6,6 C 10,7 C 0,0 km/h (0 Bft)
19.05.2019 04:18 15,6 C 10,8 C 8,1 C 16,0 C 10,5 C 13,0 C 69 % 76 % 84 % 99 % 1005,0 hPa 0,0 l/m 0,8 km/h (0 Bft) W-SW 247 6,7 C 10,8 C 4,1 km/h (1 Bft)
19.05.2019 04:16 15,6 C 10,9 C 7,9 C 16,1 C 10,6 C 13,0 C 69 % 75 % 84 % 99 % 1005,0 hPa 0,0 l/m 0,5 km/h (0 Bft) S-SW 202 6,6 C 10,9 C 5,1 km/h (1 Bft)
19.05.2019 04:14 15,6 C 11,0 C 7,9 C 16,1 C 10,6 C 13,1 C 69 % 75 % 84 % 99 % 1005,0 hPa 0,0 l/m 0,3 km/h (0 Bft) W-SW 247 6,7 C 11,0 C 0,0 km/h (0 Bft)
19.05.2019 04:12 15,6 C 11,1 C 8,0 C 16,1 C 10,7 C 13,1 C 69 % 75 % 84 % 99 % 1005,0 hPa 0,0 l/m 0,3 km/h (0 Bft) SW 225 6,8 C 11,1 C 0,0 km/h (0 Bft)
19.05.2019 04:10 15,6 C 11,2 C 8,0 C 16,1 C 10,7 C 13,1 C 69 % 75 % 84 % 99 % 1005,3 hPa 0,0 l/m 0,5 km/h (0 Bft) NO 45 6,9 C 11,2 C 0,0 km/h (0 Bft)
19.05.2019 04:08 15,6 C 11,3 C 8,1 C 16,1 C 10,7 C 13,1 C 69 % 75 % 84 % 99 % 1005,3 hPa 0,0 l/m 0,5 km/h (0 Bft) SO 135 7,0 C 11,3 C 0,0 km/h (0 Bft)
19.05.2019 04:06 15,6 C 11,4 C 8,2 C 16,1 C 10,7 C 13,1 C 69 % 75 % 84 % 99 % 1005,3 hPa 0,0 l/m 0,5 km/h (0 Bft) N-NO 22 7,1 C 11,4 C 0,0 km/h (0 Bft)
19.05.2019 04:04 15,6 C 11,4 C 8,4 C 16,1 C 10,7 C 13,1 C 69 % 75 % 84 % 99 % 1005,3 hPa 0,0 l/m 0,5 km/h (0 Bft) W-SW 247 7,1 C 11,4 C 3,6 km/h (1 Bft)
19.05.2019 04:02 15,6 C 11,4 C 8,7 C 16,1 C 10,8 C 13,1 C 69 % 75 % 83 % 99 % 1005,3 hPa 0,0 l/m 0,6 km/h (0 Bft) S-SO 157 7,1 C 11,4 C 0,0 km/h (0 Bft)
19.05.2019 04:00 15,6 C 11,3 C 8,6 C 16,1 C 10,8 C 13,1 C 69 % 75 % 83 % 99 % 1005,3 hPa 0,0 l/m 1,0 km/h (0 Bft) S 180 7,0 C 11,3 C 0,0 km/h (0 Bft)
19.05.2019 03:58 15,6 C 11,3 C 8,7 C 16,1 C 10,8 C 13,2 C 69 % 75 % 84 % 99 % 1005,3 hPa 0,0 l/m 1,3 km/h (1 Bft) SO 135 7,0 C 11,3 C 0,0 km/h (0 Bft)
19.05.2019 03:56 15,6 C 11,4 C 9,0 C 16,2 C 10,8 C 13,2 C 69 % 75 % 83 % 99 % 1005,3 hPa 0,0 l/m 1,4 km/h (1 Bft) O-SO 112 7,1 C 11,4 C 0,0 km/h (0 Bft)
19.05.2019 03:54 15,7 C 11,3 C 9,1 C 16,2 C 10,8 C 13,2 C 69 % 75 % 83 % 99 % 1005,3 hPa 0,0 l/m 1,8 km/h (1 Bft) W 270 7,0 C 11,3 C 5,1 km/h (1 Bft)
19.05.2019 03:52 15,7 C 11,3 C 9,1 C 16,2 C 10,9 C 13,3 C 69 % 75 % 83 % 99 % 1005,3 hPa 0,0 l/m 1,4 km/h (1 Bft) SO 135 7,0 C 11,3 C 0,0 km/h (0 Bft)
19.05.2019 03:50 15,7 C 11,2 C 9,3 C 16,2 C 10,9 C 13,3 C 69 % 74 % 83 % 99 % 1005,3 hPa 0,0 l/m 1,6 km/h (1 Bft) O-NO 67 6,7 C 11,2 C 6,3 km/h (2 Bft)
19.05.2019 03:48 15,6 C 11,3 C 9,0 C 16,2 C 10,9 C 13,3 C 69 % 74 % 83 % 99 % 1005,3 hPa 0,0 l/m 0,8 km/h (0 Bft) O-NO 67 6,8 C 11,3 C 2,4 km/h (1 Bft)
19.05.2019 03:46 15,7 C 11,4 C 8,9 C 16,2 C 10,9 C 13,3 C 69 % 74 % 83 % 99 % 1005,3 hPa 0,0 l/m 1,0 km/h (0 Bft) S 180 6,9 C 11,4 C 6,0 km/h (2 Bft)
19.05.2019 03:44 15,7 C 11,5 C 9,2 C 16,2 C 11,0 C 13,3 C 69 % 74 % 83 % 99 % 1005,3 hPa 0,0 l/m 0,6 km/h (0 Bft) S-SO 157 7,0 C 11,5 C 4,1 km/h (1 Bft)
19.05.2019 03:42 15,7 C 11,6 C 9,1 C 16,2 C 11,1 C 13,5 C 69 % 74 % 83 % 99 % 1005,3 hPa 0,0 l/m 0,5 km/h (0 Bft) NO 45 7,1 C 11,6 C 0,0 km/h (0 Bft)
19.05.2019 03:40 15,7 C 11,7 C 8,8 C 16,2 C 11,1 C 13,5 C 69 % 74 % 83 % 99 % 1005,3 hPa 0,0 l/m 0,6 km/h (0 Bft) W 270 7,2 C 11,7 C 0,0 km/h (0 Bft)
19.05.2019 03:38 15,6 C 11,8 C 9,1 C 16,2 C 11,1 C 13,5 C 69 % 74 % 83 % 99 % 1005,3 hPa 0,0 l/m 0,6 km/h (0 Bft) S 180 7,3 C 11,8 C 0,0 km/h (0 Bft)
19.05.2019 03:36 15,7 C 11,9 C 9,4 C 16,2 C 11,2 C 13,5 C 69 % 74 % 83 % 99 % 1005,3 hPa 0,0 l/m 1,0 km/h (0 Bft) S-SW 202 7,4 C 11,9 C 2,9 km/h (1 Bft)
19.05.2019 03:34 15,7 C 11,9 C 10,0 C 16,2 C 11,2 C 13,5 C 69 % 74 % 83 % 99 % 1005,3 hPa 0,0 l/m 1,1 km/h (1 Bft) O-SO 112 7,4 C 11,9 C 0,0 km/h (0 Bft)
19.05.2019 03:32 15,7 C 12,1 C 10,2 C 16,2 C 11,3 C 13,5 C 69 % 74 % 83 % 99 % 1005,3 hPa 0,0 l/m 1,3 km/h (1 Bft) SO 135 7,6 C 12,1 C 0,0 km/h (0 Bft)
19.05.2019 03:30 15,7 C 12,1 C 10,2 C 16,2 C 11,3 C 13,5 C 69 % 74 % 83 % 99 % 1005,6 hPa 0,0 l/m 1,3 km/h (1 Bft) NW 315 7,6 C 12,1 C 0,0 km/h (0 Bft)
19.05.2019 03:28 15,7 C 12,1 C 10,6 C 16,2 C 11,3 C 13,5 C 69 % 74 % 83 % 99 % 1005,6 hPa 0,0 l/m 1,6 km/h (1 Bft) N 360 7,6 C 12,1 C 4,1 km/h (1 Bft)
19.05.2019 03:26 15,7 C 12,1 C 10,5 C 16,2 C 11,3 C 13,6 C 69 % 74 % 83 % 99 % 1005,6 hPa 0,0 l/m 1,6 km/h (1 Bft) O-NO 67 7,6 C 12,1 C 2,4 km/h (1 Bft)
19.05.2019 03:24 15,6 C 12,1 C 10,4 C 16,2 C 11,4 C 13,6 C 69 % 74 % 83 % 99 % 1005,6 hPa 0,0 l/m 1,6 km/h (1 Bft) O-NO 67 7,6 C 12,1 C 3,9 km/h (1 Bft)
19.05.2019 03:22 15,7 C 12,2 C 10,5 C 16,2 C 11,3 C 13,6 C 69 % 74 % 83 % 99 % 1005,6 hPa 0,0 l/m 1,6 km/h (1 Bft) S-SO 157 7,7 C 12,2 C 0,0 km/h (0 Bft)
19.05.2019 03:20 15,7 C 12,3 C 10,7 C 16,2 C 11,4 C 13,7 C 69 % 74 % 83 % 99 % 1005,6 hPa 0,0 l/m 1,9 km/h (1 Bft) NW 315 7,8 C 12,3 C 5,1 km/h (1 Bft)
19.05.2019 03:18 15,6 C 12,3 C 11,0 C 16,2 C 11,4 C 13,7 C 69 % 74 % 83 % 99 % 1005,6 hPa 0,0 l/m 1,9 km/h (1 Bft) S-SO 157 7,8 C 12,3 C 12,1 km/h (2 Bft)
19.05.2019 03:16 15,7 C 12,2 C 11,2 C 16,2 C 11,4 C 13,7 C 69 % 74 % 83 % 99 % 1005,6 hPa 0,0 l/m 2,1 km/h (1 Bft) N-NW 337 7,7 C 12,2 C 4,6 km/h (1 Bft)
19.05.2019 03:14 15,6 C 12,2 C 10,9 C 16,2 C 11,4 C 13,7 C 69 % 74 % 83 % 99 % 1005,6 hPa 0,0 l/m 2,7 km/h (1 Bft) NO 45 7,7 C 12,2 C 6,5 km/h (2 Bft)
19.05.2019 03:12 15,7 C 12,2 C 11,0 C 16,2 C 11,4 C 13,7 C 69 % 74 % 83 % 99 % 1005,6 hPa 0,0 l/m 3,2 km/h (1 Bft) N-NW 337 7,7 C 12,2 C 3,4 km/h (1 Bft)
19.05.2019 03:10 15,6 C 12,2 C 11,0 C 16,2 C 11,4 C 13,7 C 69 % 74 % 83 % 99 % 1005,6 hPa 0,0 l/m 3,2 km/h (1 Bft) NW 315 7,7 C 12,2 C 4,1 km/h (1 Bft)
19.05.2019 03:08 15,6 C 12,2 C 10,8 C 16,3 C 11,4 C 13,7 C 69 % 74 % 84 % 99 % 1005,6 hPa 0,0 l/m 3,7 km/h (1 Bft) N-NO 22 7,7 C 12,2 C 6,0 km/h (2 Bft)
19.05.2019 03:06 15,7 C 12,2 C 10,7 C 16,3 C 11,3 C 13,7 C 69 % 74 % 83 % 99 % 1005,6 hPa 0,0 l/m 3,9 km/h (1 Bft) O-NO 67 7,7 C 12,2 C 2,4 km/h (1 Bft)
19.05.2019 03:04 15,7 C 12,2 C 10,8 C 16,3 C 11,3 C 13,8 C 69 % 74 % 83 % 99 % 1005,6 hPa 0,0 l/m 3,7 km/h (1 Bft) NO 45 7,7 C 12,2 C 3,9 km/h (1 Bft)
19.05.2019 03:02 15,6 C 12,2 C 11,1 C 16,3 C 11,4 C 13,7 C 69 % 74 % 84 % 99 % 1005,6 hPa 0,0 l/m 4,0 km/h (1 Bft) N-NO 22 7,7 C 12,2 C 8,2 km/h (2 Bft)
19.05.2019 03:00 15,6 C 12,2 C 11,2 C 16,3 C 11,3 C 13,8 C 69 % 74 % 83 % 99 % 1005,6 hPa 0,0 l/m 4,7 km/h (1 Bft) N-NO 22 7,7 C 12,2 C 2,4 km/h (1 Bft)
19.05.2019 02:58 15,6 C 12,2 C 11,3 C 16,3 C 11,3 C 13,8 C 69 % 74 % 83 % 99 % 1005,6 hPa 0,0 l/m 6,0 km/h (2 Bft) N-NO 22 7,7 C 12,2 C 11,1 km/h (2 Bft)
19.05.2019 02:56 15,6 C 12,2 C 11,0 C 16,3 C 11,3 C 13,8 C 69 % 74 % 83 % 99 % 1005,6 hPa 0,0 l/m 5,8 km/h (2 Bft) NW 315 7,7 C 12,2 C 15,9 km/h (3 Bft)
19.05.2019 02:54 15,6 C 12,2 C 11,1 C 16,3 C 11,3 C 13,8 C 69 % 74 % 83 % 99 % 1005,6 hPa 0,0 l/m 6,0 km/h (2 Bft) O 90 7,7 C 12,2 C 5,8 km/h (2 Bft)
19.05.2019 02:52 15,6 C 12,2 C 11,3 C 16,3 C 11,3 C 13,8 C 69 % 74 % 83 % 99 % 1005,6 hPa 0,0 l/m 5,8 km/h (2 Bft) O-NO 67 7,7 C 12,2 C 12,1 km/h (2 Bft)
19.05.2019 02:50 15,6 C 12,2 C 11,3 C 16,3 C 11,2 C 13,8 C 69 % 75 % 83 % 99 % 1005,5 hPa 0,0 l/m 5,6 km/h (1 Bft) N-NO 22 7,9 C 12,2 C 11,3 km/h (2 Bft)
19.05.2019 02:48 15,6 C 12,2 C 11,1 C 16,3 C 11,2 C 13,8 C 68 % 75 % 83 % 99 % 1005,5 hPa 0,0 l/m 5,8 km/h (2 Bft) NO 45 7,9 C 12,2 C 14,2 km/h (3 Bft)
19.05.2019 02:46 15,6 C 12,1 C 11,1 C 16,3 C 11,2 C 13,8 C 69 % 75 % 83 % 99 % 1005,5 hPa 0,0 l/m 5,5 km/h (1 Bft) N-NO 22 7,8 C 12,1 C 11,8 km/h (2 Bft)
19.05.2019 02:44 15,6 C 12,1 C 11,1 C 16,3 C 11,1 C 13,8 C 69 % 75 % 83 % 99 % 1005,5 hPa 0,0 l/m 5,6 km/h (1 Bft) NO 45 7,8 C 12,1 C 6,8 km/h (2 Bft)
19.05.2019 02:42 15,6 C 12,1 C 11,0 C 16,3 C 11,1 C 13,8 C 68 % 75 % 83 % 99 % 1005,5 hPa 0,0 l/m 5,6 km/h (1 Bft) N-NO 22 7,8 C 12,1 C 8,0 km/h (2 Bft)
19.05.2019 02:40 15,6 C 11,9 C 10,8 C 16,4 C 11,1 C 13,8 C 69 % 75 % 83 % 99 % 1005,5 hPa 0,0 l/m 6,1 km/h (2 Bft) N-NO 22 7,6 C 11,9 C 7,2 km/h (2 Bft)
19.05.2019 02:38 15,6 C 11,9 C 10,4 C 16,4 C 11,1 C 13,8 C 68 % 75 % 83 % 99 % 1005,5 hPa 0,0 l/m 6,3 km/h (2 Bft) S-SW 202 7,6 C 11,9 C 28,0 km/h (4 Bft)
19.05.2019 02:36 15,6 C 11,9 C 10,0 C 16,4 C 11,1 C 13,8 C 69 % 75 % 83 % 99 % 1005,5 hPa 0,0 l/m 6,1 km/h (2 Bft) O-NO 67 7,6 C 11,9 C 12,6 km/h (3 Bft)
19.05.2019 02:34 15,6 C 11,9 C 10,1 C 16,4 C 11,1 C 13,8 C 68 % 75 % 83 % 99 % 1005,5 hPa 0,0 l/m 6,3 km/h (2 Bft) NO 45 7,6 C 11,9 C 9,9 km/h (2 Bft)
19.05.2019 02:32 15,6 C 11,8 C 10,0 C 16,5 C 11,0 C 13,8 C 68 % 75 % 83 % 99 % 1005,5 hPa 0,0 l/m 6,6 km/h (2 Bft) N-NO 22 7,5 C 11,8 C 7,0 km/h (2 Bft)
19.05.2019 02:30 15,6 C 11,8 C 10,2 C 16,5 C 11,0 C 13,8 C 68 % 76 % 83 % 99 % 1005,6 hPa 0,0 l/m 7,1 km/h (2 Bft) N-NO 22 7,7 C 11,8 C 13,8 km/h (3 Bft)
19.05.2019 02:28 15,6 C 11,7 C 9,6 C 16,5 C 11,0 C 13,8 C 68 % 76 % 83 % 99 % 1005,6 hPa 0,0 l/m 7,1 km/h (2 Bft) NO 45 7,6 C 11,7 C 26,1 km/h (4 Bft)
19.05.2019 02:26 15,6 C 11,6 C 9,7 C 16,5 C 11,0 C 13,8 C 69 % 76 % 83 % 99 % 1005,6 hPa 0,0 l/m 6,6 km/h (2 Bft) N-NO 22 7,5 C 11,6 C 16,2 km/h (3 Bft)
19.05.2019 02:24 15,6 C 11,5 C 9,9 C 16,5 C 11,0 C 13,9 C 69 % 76 % 83 % 99 % 1005,6 hPa 0,0 l/m 5,0 km/h (1 Bft) O-NO 67 7,4 C 11,5 C 15,9 km/h (3 Bft)
19.05.2019 02:22 15,6 C 11,3 C 9,7 C 16,5 C 10,9 C 13,9 C 69 % 76 % 83 % 99 % 1005,6 hPa 0,0 l/m 4,2 km/h (1 Bft) N-NO 22 7,2 C 11,3 C 19,3 km/h (3 Bft)
19.05.2019 02:20 15,6 C 11,2 C 9,3 C 16,5 C 10,9 C 13,8 C 69 % 75 % 83 % 99 % 1005,6 hPa 0,0 l/m 2,9 km/h (1 Bft) N-NO 22 6,9 C 11,2 C 13,8 km/h (3 Bft)
19.05.2019 02:18 15,6 C 11,1 C 8,8 C 16,5 C 10,9 C 13,9 C 69 % 75 % 83 % 99 % 1005,6 hPa 0,0 l/m 1,6 km/h (1 Bft) S-SW 202 6,8 C 11,1 C 7,2 km/h (2 Bft)
19.05.2019 02:16 15,8 C 11,1 C 8,6 C 16,5 C 10,9 C 13,9 C 69 % 75 % 83 % 99 % 1005,6 hPa 0,0 l/m 0,6 km/h (0 Bft) O-NO 67 6,8 C 11,1 C 2,4 km/h (1 Bft)
19.05.2019 02:14 15,8 C 11,1 C 8,6 C 16,5 C 10,9 C 13,9 C 69 % 75 % 83 % 99 % 1005,6 hPa 0,0 l/m 0,8 km/h (0 Bft) O 90 6,8 C 11,1 C 0,0 km/h (0 Bft)
19.05.2019 02:12 15,8 C 11,1 C 8,5 C 16,5 C 11,0 C 14,0 C 69 % 75 % 83 % 99 % 1005,6 hPa 0,0 l/m 0,8 km/h (0 Bft) N-NO 22 6,8 C 11,1 C 8,0 km/h (2 Bft)
19.05.2019 02:10 15,8 C 11,1 C 8,8 C 16,5 C 11,0 C 14,0 C 69 % 75 % 83 % 99 % 1005,5 hPa 0,0 l/m 1,1 km/h (1 Bft) S-SW 202 6,8 C 11,1 C 0,0 km/h (0 Bft)
19.05.2019 02:08 15,8 C 11,1 C 9,1 C 16,5 C 11,0 C 14,0 C 68 % 75 % 83 % 99 % 1005,5 hPa 0,0 l/m 1,3 km/h (1 Bft) O-NO 67 6,8 C 11,1 C 6,3 km/h (2 Bft)
19.05.2019 02:06 15,8 C 11,1 C 8,6 C 16,5 C 11,0 C 14,1 C 68 % 75 % 83 % 99 % 1005,5 hPa 0,0 l/m 1,3 km/h (1 Bft) S-SW 202 6,8 C 11,1 C 0,0 km/h (0 Bft)
19.05.2019 02:04 15,8 C 11,1 C 8,8 C 16,5 C 11,0 C 14,1 C 68 % 75 % 83 % 99 % 1005,5 hPa 0,0 l/m 1,3 km/h (1 Bft) O 90 6,8 C 11,1 C 0,0 km/h (0 Bft)
19.05.2019 02:02 15,8 C 11,1 C 8,8 C 16,5 C 11,0 C 14,1 C 68 % 75 % 83 % 99 % 1005,5 hPa 0,0 l/m 1,4 km/h (1 Bft) O-NO 67 6,8 C 11,1 C 3,6 km/h (1 Bft)
19.05.2019 02:00 15,8 C 10,9 C 8,0 C 16,6 C 11,1 C 14,3 C 68 % 75 % 82 % 99 % 1005,5 hPa 0,0 l/m 0,2 km/h (0 Bft) W 270 6,6 C 10,9 C 2,4 km/h (1 Bft)
19.05.2019 01:58 15,8 C 10,9 C 8,0 C 16,6 C 11,1 C 14,3 C 69 % 75 % 82 % 99 % 1005,5 hPa 0,0 l/m 0,2 km/h (0 Bft) W 270 6,6 C 10,9 C 2,4 km/h (1 Bft)
19.05.2019 01:56 15,8 C 10,9 C 8,0 C 16,6 C 11,1 C 14,3 C 68 % 75 % 82 % 99 % 1005,5 hPa 0,0 l/m 0,2 km/h (0 Bft) W 270 6,6 C 10,9 C 2,4 km/h (1 Bft)
19.05.2019 01:54 15,8 C 10,9 C 8,0 C 16,6 C 11,1 C 14,3 C 69 % 75 % 82 % 99 % 1005,5 hPa 0,0 l/m 0,2 km/h (0 Bft) W 270 6,6 C 10,9 C 2,4 km/h (1 Bft)
19.05.2019 01:52 15,8 C 10,9 C 8,0 C 16,6 C 11,1 C 14,3 C 69 % 75 % 82 % 99 % 1005,5 hPa 0,0 l/m 0,2 km/h (0 Bft) W 270 6,6 C 10,9 C 2,4 km/h (1 Bft)
19.05.2019 01:50 15,8 C 10,9 C 7,8 C 16,6 C 11,1 C 14,3 C 69 % 75 % 82 % 99 % 1005,7 hPa 0,0 l/m 0,2 km/h (0 Bft) W 270 6,6 C 10,9 C 2,4 km/h (1 Bft)
19.05.2019 01:48 15,8 C 10,9 C 7,8 C 16,6 C 11,2 C 14,3 C 69 % 74 % 82 % 99 % 1005,7 hPa 0,0 l/m 0,3 km/h (0 Bft) W-SW 247 6,5 C 10,9 C 0,0 km/h (0 Bft)
19.05.2019 01:46 15,8 C 11,0 C 7,9 C 16,6 C 11,2 C 14,4 C 69 % 74 % 82 % 99 % 1005,7 hPa 0,0 l/m 0,5 km/h (0 Bft) O-SO 112 6,5 C 11,0 C 0,0 km/h (0 Bft)
19.05.2019 01:44 15,8 C 11,0 C 7,9 C 16,6 C 11,2 C 14,4 C 69 % 74 % 82 % 99 % 1005,7 hPa 0,0 l/m 0,5 km/h (0 Bft) W-SW 247 6,5 C 11,0 C 0,0 km/h (0 Bft)
19.05.2019 01:42 15,8 C 11,0 C 8,1 C 16,6 C 11,3 C 14,5 C 69 % 74 % 82 % 99 % 1005,7 hPa 0,0 l/m 0,5 km/h (0 Bft) SW 225 6,5 C 11,0 C 0,0 km/h (0 Bft)
19.05.2019 01:40 15,6 C 11,0 C 7,8 C 16,6 C 11,3 C 14,5 C 69 % 74 % 82 % 99 % 1005,7 hPa 0,0 l/m 0,5 km/h (0 Bft) S-SW 202 6,5 C 11,0 C 0,0 km/h (0 Bft)
19.05.2019 01:38 15,8 C 11,0 C 7,8 C 16,6 C 11,3 C 14,5 C 69 % 74 % 82 % 99 % 1005,7 hPa 0,0 l/m 0,3 km/h (0 Bft) W 270 6,5 C 11,0 C 4,6 km/h (1 Bft)
19.05.2019 01:36 15,8 C 11,1 C 8,0 C 16,6 C 11,4 C 14,5 C 69 % 74 % 82 % 99 % 1005,7 hPa 0,0 l/m 0,2 km/h (0 Bft) N-NW 337 6,6 C 11,1 C 0,0 km/h (0 Bft)
19.05.2019 01:34 15,8 C 11,2 C 8,2 C 16,6 C 11,5 C 14,5 C 68 % 73 % 82 % 99 % 1005,7 hPa 0,0 l/m 0,3 km/h (0 Bft) SW 225 6,5 C 11,2 C 0,0 km/h (0 Bft)
19.05.2019 01:32 15,8 C 11,3 C 7,9 C 16,7 C 11,5 C 14,5 C 69 % 73 % 82 % 99 % 1005,7 hPa 0,0 l/m 0,3 km/h (0 Bft) SW 225 6,6 C 11,3 C 0,0 km/h (0 Bft)
19.05.2019 01:30 15,8 C 11,3 C 7,8 C 16,7 C 11,5 C 14,6 C 69 % 73 % 82 % 99 % 1005,6 hPa 0,0 l/m 0,2 km/h (0 Bft) W-SW 247 6,6 C 11,3 C 0,0 km/h (0 Bft)
19.05.2019 01:28 15,8 C 11,4 C 7,8 C 16,7 C 11,5 C 14,6 C 69 % 73 % 82 % 99 % 1005,6 hPa 0,0 l/m 0,3 km/h (0 Bft) NO 45 6,7 C 11,4 C 0,0 km/h (0 Bft)
19.05.2019 01:26 15,6 C 11,4 C 8,0 C 16,7 C 11,6 C 14,6 C 68 % 73 % 82 % 99 % 1005,6 hPa 0,0 l/m 0,3 km/h (0 Bft) O 90 6,7 C 11,4 C 0,0 km/h (0 Bft)
19.05.2019 01:24 15,8 C 11,5 C 8,2 C 16,7 C 11,6 C 14,7 C 69 % 73 % 82 % 99 % 1005,6 hPa 0,0 l/m 0,5 km/h (0 Bft) W-SW 247 6,8 C 11,5 C 4,3 km/h (1 Bft)
19.05.2019 01:22 15,8 C 11,6 C 8,1 C 16,7 C 11,6 C 14,7 C 69 % 73 % 82 % 99 % 1005,6 hPa 0,0 l/m 0,5 km/h (0 Bft) N-NO 22 6,9 C 11,6 C 0,0 km/h (0 Bft)
19.05.2019 01:20 15,8 C 11,6 C 8,4 C 16,7 C 11,7 C 14,7 C 68 % 73 % 82 % 99 % 1005,6 hPa 0,0 l/m 0,5 km/h (0 Bft) S 180 6,9 C 11,6 C 0,0 km/h (0 Bft)
19.05.2019 01:18 15,8 C 11,6 C 8,5 C 16,7 C 11,7 C 14,7 C 69 % 73 % 82 % 99 % 1005,6 hPa 0,0 l/m 0,6 km/h (0 Bft) W-SW 247 6,9 C 11,6 C 4,1 km/h (1 Bft)
19.05.2019 01:16 15,8 C 11,6 C 8,4 C 16,7 C 11,7 C 14,7 C 69 % 73 % 82 % 99 % 1005,6 hPa 0,0 l/m 0,6 km/h (0 Bft) SW 225 6,9 C 11,6 C 0,0 km/h (0 Bft)
19.05.2019 01:14 15,8 C 11,5 C 8,4 C 16,7 C 11,7 C 14,7 C 69 % 73 % 82 % 99 % 1005,6 hPa 0,0 l/m 0,6 km/h (0 Bft) SW 225 6,8 C 11,5 C 3,1 km/h (1 Bft)
19.05.2019 01:12 15,8 C 11,5 C 8,5 C 16,7 C 11,8 C 14,8 C 68 % 73 % 82 % 99 % 1005,6 hPa 0,0 l/m 0,5 km/h (0 Bft) N-NO 22 6,8 C 11,5 C 0,0 km/h (0 Bft)
19.05.2019 01:10 15,6 C 11,6 C 8,6 C 16,8 C 11,8 C 14,8 C 68 % 73 % 82 % 99 % 1005,9 hPa 0,0 l/m 0,5 km/h (0 Bft) N-NW 337 6,9 C 11,6 C 0,0 km/h (0 Bft)
19.05.2019 01:08 15,8 C 11,6 C 8,6 C 16,8 C 11,8 C 14,9 C 69 % 73 % 82 % 99 % 1005,9 hPa 0,0 l/m 0,6 km/h (0 Bft) NW 315 6,9 C 11,6 C 3,1 km/h (1 Bft)
19.05.2019 01:06 15,8 C 11,7 C 8,8 C 16,8 C 11,9 C 14,9 C 68 % 73 % 82 % 99 % 1005,9 hPa 0,0 l/m 0,5 km/h (0 Bft) N-NO 22 7,0 C 11,7 C 0,0 km/h (0 Bft)
19.05.2019 01:04 15,8 C 11,7 C 8,9 C 16,8 C 11,9 C 14,8 C 69 % 73 % 82 % 99 % 1005,9 hPa 0,0 l/m 0,3 km/h (0 Bft) NW 315 7,0 C 11,7 C 0,0 km/h (0 Bft)
19.05.2019 01:02 15,8 C 11,7 C 9,1 C 16,8 C 11,9 C 14,8 C 69 % 73 % 82 % 99 % 1005,9 hPa 0,0 l/m 0,3 km/h (0 Bft) S-SW 202 7,0 C 11,7 C 3,1 km/h (1 Bft)
19.05.2019 01:00 15,8 C 11,7 C 9,0 C 16,8 C 11,9 C 14,9 C 69 % 73 % 82 % 99 % 1005,9 hPa 0,0 l/m 0,3 km/h (0 Bft) NW 315 7,0 C 11,7 C 0,0 km/h (0 Bft)
19.05.2019 00:58 15,8 C 11,6 C 9,1 C 16,8 C 11,9 C 14,9 C 69 % 73 % 82 % 99 % 1005,9 hPa 0,0 l/m 0,3 km/h (0 Bft) W 270 6,9 C 11,6 C 4,3 km/h (1 Bft)
19.05.2019 00:56 15,8 C 11,6 C 9,3 C 16,8 C 11,9 C 14,9 C 69 % 73 % 82 % 99 % 1005,9 hPa 0,0 l/m 0,3 km/h (0 Bft) N-NO 22 6,9 C 11,6 C 0,0 km/h (0 Bft)
19.05.2019 00:54 15,8 C 11,6 C 9,3 C 16,8 C 11,9 C 14,9 C 69 % 73 % 82 % 99 % 1005,9 hPa 0,0 l/m 0,5 km/h (0 Bft) W 270 6,9 C 11,6 C 0,0 km/h (0 Bft)
19.05.2019 00:52 15,8 C 11,5 C 9,5 C 16,8 C 11,9 C 14,9 C 69 % 72 % 82 % 99 % 1005,9 hPa 0,0 l/m 0,5 km/h (0 Bft) N-NO 22 6,6 C 11,5 C 0,0 km/h (0 Bft)
19.05.2019 00:50 15,8 C 11,5 C 9,5 C 16,8 C 11,9 C 15,0 C 69 % 72 % 82 % 99 % 1005,9 hPa 0,0 l/m 0,5 km/h (0 Bft) O 90 6,6 C 11,5 C 0,0 km/h (0 Bft)
19.05.2019 00:48 15,8 C 11,4 C 9,2 C 16,8 C 11,9 C 15,0 C 69 % 72 % 81 % 99 % 1005,9 hPa 0,0 l/m 0,6 km/h (0 Bft) SW 225 6,5 C 11,4 C 0,0 km/h (0 Bft)
19.05.2019 00:46 15,8 C 11,5 C 9,1 C 16,8 C 11,9 C 15,0 C 69 % 72 % 81 % 99 % 1005,9 hPa 0,0 l/m 0,3 km/h (0 Bft) SW 225 6,6 C 11,5 C 0,0 km/h (0 Bft)
19.05.2019 00:44 15,8 C 11,5 C 9,3 C 16,8 C 11,9 C 15,0 C 69 % 72 % 81 % 99 % 1005,9 hPa 0,0 l/m 0,3 km/h (0 Bft) W-SW 247 6,6 C 11,5 C 3,4 km/h (1 Bft)
19.05.2019 00:42 15,8 C 11,4 C 9,1 C 16,9 C 11,9 C 15,0 C 69 % 72 % 81 % 99 % 1005,9 hPa 0,0 l/m 0,2 km/h (0 Bft) S 180 6,5 C 11,4 C 0,0 km/h (0 Bft)
19.05.2019 00:40 15,8 C 11,4 C 9,0 C 16,9 C 11,9 C 15,0 C 69 % 71 % 81 % 99 % 1005,9 hPa 0,0 l/m 0,6 km/h (0 Bft) S-SO 157 6,3 C 11,4 C 0,0 km/h (0 Bft)
19.05.2019 00:38 15,8 C 11,4 C 8,8 C 16,9 C 11,9 C 15,0 C 69 % 71 % 81 % 99 % 1005,9 hPa 0,0 l/m 0,6 km/h (0 Bft) NO 45 6,3 C 11,4 C 4,6 km/h (1 Bft)
19.05.2019 00:36 15,8 C 11,5 C 8,8 C 16,9 C 11,9 C 15,1 C 69 % 71 % 81 % 99 % 1005,9 hPa 0,0 l/m 0,5 km/h (0 Bft) O-SO 112 6,4 C 11,5 C 0,0 km/h (0 Bft)
19.05.2019 00:34 15,8 C 11,5 C 8,6 C 16,9 C 12,0 C 15,1 C 69 % 71 % 81 % 99 % 1005,9 hPa 0,0 l/m 0,8 km/h (0 Bft) SW 225 6,4 C 11,5 C 0,0 km/h (0 Bft)
19.05.2019 00:32 15,8 C 11,5 C 8,7 C 16,9 C 12,0 C 15,1 C 69 % 70 % 81 % 99 % 1005,9 hPa 0,0 l/m 0,8 km/h (0 Bft) O-SO 112 6,2 C 11,5 C 0,0 km/h (0 Bft)
19.05.2019 00:30 15,8 C 11,6 C 8,7 C 16,9 C 12,1 C 15,2 C 69 % 70 % 81 % 99 % 1006,0 hPa 0,0 l/m 0,8 km/h (0 Bft) SW 225 6,3 C 11,6 C 4,1 km/h (1 Bft)
19.05.2019 00:28 15,8 C 11,7 C 8,8 C 16,9 C 12,1 C 15,2 C 69 % 70 % 81 % 99 % 1006,0 hPa 0,0 l/m 0,6 km/h (0 Bft) SO 135 6,4 C 11,7 C 0,0 km/h (0 Bft)
19.05.2019 00:26 15,8 C 11,7 C 8,7 C 16,9 C 12,1 C 15,2 C 69 % 70 % 81 % 99 % 1006,0 hPa 0,0 l/m 0,6 km/h (0 Bft) SW 225 6,4 C 11,7 C 0,0 km/h (0 Bft)
19.05.2019 00:24 15,8 C 11,8 C 8,4 C 16,9 C 12,1 C 15,3 C 69 % 70 % 81 % 99 % 1006,0 hPa 0,0 l/m 0,5 km/h (0 Bft) W-SW 247 6,5 C 11,8 C 2,4 km/h (1 Bft)
19.05.2019 00:22 15,8 C 11,8 C 8,8 C 16,8 C 12,2 C 15,4 C 69 % 69 % 80 % 99 % 1006,0 hPa 0,0 l/m 0,5 km/h (0 Bft) N-NW 337 6,3 C 11,8 C 0,0 km/h (0 Bft)
19.05.2019 00:20 15,8 C 11,9 C 8,6 C 16,8 C 12,3 C 15,4 C 69 % 69 % 80 % 99 % 1006,0 hPa 0,0 l/m 0,6 km/h (0 Bft) W-SW 247 6,4 C 11,9 C 3,4 km/h (1 Bft)
19.05.2019 00:18 15,8 C 11,9 C 8,7 C 16,9 C 12,3 C 15,5 C 69 % 69 % 80 % 99 % 1006,0 hPa 0,0 l/m 0,3 km/h (0 Bft) SW 225 6,4 C 11,9 C 0,0 km/h (0 Bft)
19.05.2019 00:16 15,6 C 12,1 C 8,6 C 16,9 C 12,3 C 15,5 C 69 % 68 % 80 % 99 % 1006,0 hPa 0,0 l/m 0,3 km/h (0 Bft) SW 225 6,4 C 12,1 C 0,0 km/h (0 Bft)
19.05.2019 00:14 15,8 C 12,1 C 8,7 C 16,9 C 12,4 C